Time,TemperatureF,DewpointF,PressureIn,WindDirection,WindDirectionDegrees,WindSpeedMPH,WindSpeedGustMPH,Humidity,HourlyPrecipIn,Conditions,Clouds,dailyrainin,SolarRadiationWatts/m^2,SoftwareType,DateUTC
2013-06-13 00:00:00,62.6,54.2,30.01,North,0,2.0,9.0,74,0.00,,,0.00,0,WeatherCatV1.15B25,2013-06-13 05:00:00,
2013-06-13 00:01:00,61.8,53.8,30.01,NNE,13,0.0,0.0,75,0.00,,,0.00,0,LWC V2.10 B1813,2013-06-13 05:01:00,
2013-06-13 00:05:00,62.6,54.2,30.01,North,0,2.0,9.0,74,0.00,,,0.00,0,WeatherCatV1.15B25,2013-06-13 05:05:00,
2013-06-13 00:06:00,61.7,53.7,30.01,NNE,13,0.0,0.0,75,0.00,,,0.00,0,LWC V2.10 B1813,2013-06-13 05:06:00,
2013-06-13 00:10:00,62.1,54.1,30.01,NNE,22,1.0,5.0,75,0.00,,,0.00,0,WeatherCatV1.15B25,2013-06-13 05:10:00,
2013-06-13 00:11:00,61.5,53.9,30.00,NNE,13,2.0,3.0,76,0.00,,,0.00,0,LWC V2.10 B1813,2013-06-13 05:11:00,
2013-06-13 00:15:00,62.1,54.1,30.01,NNE,22,1.0,5.0,75,0.00,,,0.00,0,WeatherCatV1.15B25,2013-06-13 05:15:00,
2013-06-13 00:16:00,61.4,53.8,30.01,NNW,346,1.0,6.0,76,0.00,,,0.00,0,LWC V2.10 B1813,2013-06-13 05:16:00,
2013-06-13 00:20:00,62.1,54.1,30.01,NNE,22,1.0,5.0,75,0.00,,,0.00,0,WeatherCatV1.15B25,2013-06-13 05:20:00,
2013-06-13 00:21:00,61.3,54.0,30.01,North,350,0.0,2.0,77,0.00,,,0.00,0,LWC V2.10 B1813,2013-06-13 05:21:00,
2013-06-13 00:25:00,61.6,54.0,30.01,NNE,22,1.0,6.0,76,0.00,,,0.00,0,WeatherCatV1.15B25,2013-06-13 05:25:00,
2013-06-13 00:26:00,61.2,53.9,30.00,North,355,2.0,4.0,77,0.00,,,0.00,0,LWC V2.10 B1813,2013-06-13 05:26:00,
2013-06-13 00:30:00,61.6,54.0,30.01,NNE,22,1.0,6.0,76,0.00,,,0.00,0,WeatherCatV1.15B25,2013-06-13 05:30:00,
2013-06-13 00:31:00,61.0,53.7,30.01,NNE,13,0.0,7.0,77,0.00,,,0.00,0,LWC V2.10 B1813,2013-06-13 05:31:00,
2013-06-13 00:35:00,61.6,54.0,30.01,NNE,22,1.0,6.0,76,0.00,,,0.00,0,WeatherCatV1.15B25,2013-06-13 05:35:00,
2013-06-13 00:36:00,60.9,54.0,30.01,North,10,1.0,4.0,78,0.00,,,0.00,0,LWC V2.10 B1813,2013-06-13 05:36:00,
2013-06-13 00:40:00,61.3,54.0,30.01,North,0,2.0,7.0,77,0.00,,,0.00,0,WeatherCatV1.15B25,2013-06-13 05:40:00,
2013-06-13 00:41:00,60.7,53.8,30.01,North,0,0.0,6.0,78,0.00,,,0.00,0,LWC V2.10 B1813,2013-06-13 05:41:00,
2013-06-13 00:45:00,61.3,54.0,30.01,North,0,2.0,7.0,77,0.00,,,0.00,0,WeatherCatV1.15B25,2013-06-13 05:45:00,
2013-06-13 00:46:00,60.6,53.7,30.01,North,355,3.0,3.0,78,0.00,,,0.00,0,LWC V2.10 B1813,2013-06-13 05:46:00,
2013-06-13 00:50:00,61.3,54.0,30.01,North,0,2.0,7.0,77,0.00,,,0.00,0,WeatherCatV1.15B25,2013-06-13 05:50:00,
2013-06-13 00:51:00,60.5,53.6,30.00,North,0,2.0,6.0,78,0.00,,,0.00,0,LWC V2.10 B1813,2013-06-13 05:51:00,
2013-06-13 00:55:00,60.8,53.9,30.01,North,0,1.0,6.0,78,0.00,,,0.00,0,WeatherCatV1.15B25,2013-06-13 05:55:00,
2013-06-13 00:56:00,60.4,53.9,30.00,NNE,19,2.0,6.0,79,0.00,,,0.00,0,LWC V2.10 B1813,2013-06-13 05:56:00,
2013-06-13 01:00:00,60.8,53.9,30.01,North,0,1.0,6.0,78,0.00,,,0.00,0,WeatherCatV1.15B25,2013-06-13 06:00:00,
2013-06-13 01:01:00,60.4,53.9,30.01,NNE,20,0.0,3.0,79,0.00,,,0.00,0,LWC V2.10 B1813,2013-06-13 06:01:00,
2013-06-13 01:05:00,60.8,53.9,30.01,North,0,1.0,6.0,78,0.00,,,0.00,0,WeatherCatV1.15B25,2013-06-13 06:05:00,
2013-06-13 01:06:00,60.2,53.7,30.01,NNE,20,0.0,2.0,79,0.00,,,0.00,0,LWC V2.10 B1813,2013-06-13 06:06:00,
2013-06-13 01:10:00,60.5,53.9,30.01,North,0,2.0,9.0,79,0.00,,,0.00,0,WeatherCatV1.15B25,2013-06-13 06:10:00,
2013-06-13 01:11:00,60.1,53.6,30.01,North,9,2.0,5.0,79,0.00,,,0.00,0,LWC V2.10 B1813,2013-06-13 06:11:00,
2013-06-13 01:12:00,60.1,53.6,30.01,North,355,2.0,7.0,79,0.00,,,0.00,0,LWC V2.10 B1813,2013-06-13 06:12:00,
2013-06-13 01:15:00,60.5,53.9,30.01,North,0,2.0,9.0,79,0.00,,,0.00,0,WeatherCatV1.15B25,2013-06-13 06:15:00,
2013-06-13 01:17:00,60.0,53.5,30.01,NNE,12,2.0,7.0,79,0.00,,,0.00,0,LWC V2.10 B1813,2013-06-13 06:17:00,
2013-06-13 01:20:00,60.5,53.9,30.01,North,0,2.0,9.0,79,0.00,,,0.00,0,WeatherCatV1.15B25,2013-06-13 06:20:00,
2013-06-13 01:22:00,59.9,53.7,30.01,NE,45,0.0,3.0,80,0.00,,,0.00,0,LWC V2.10 B1813,2013-06-13 06:22:00,
2013-06-13 01:25:00,60.2,53.7,30.01,North,0,1.0,11.0,79,0.00,,,0.00,0,WeatherCatV1.15B25,2013-06-13 06:25:00,
2013-06-13 01:27:00,59.8,53.6,30.00,NE,40,0.0,6.0,80,0.00,,,0.00,0,LWC V2.10 B1813,2013-06-13 06:27:00,
2013-06-13 01:30:00,60.2,53.7,30.01,North,0,1.0,11.0,79,0.00,,,0.00,0,WeatherCatV1.15B25,2013-06-13 06:30:00,
2013-06-13 01:32:00,59.7,53.5,30.00,NE,41,2.0,4.0,80,0.00,,,0.00,0,LWC V2.10 B1813,2013-06-13 06:32:00,
2013-06-13 01:35:00,60.2,53.7,30.01,North,0,1.0,11.0,79,0.00,,,0.00,0,WeatherCatV1.15B25,2013-06-13 06:35:00,
2013-06-13 01:37:00,59.6,53.4,30.01,NE,38,0.0,6.0,80,0.00,,,0.00,0,LWC V2.10 B1813,2013-06-13 06:37:00,
2013-06-13 01:40:00,59.9,53.7,30.00,NE,45,2.0,7.0,80,0.00,,,0.00,0,WeatherCatV1.15B25,2013-06-13 06:40:00,
2013-06-13 01:42:00,59.4,53.6,30.00,North,5,5.0,6.0,81,0.00,,,0.00,0,LWC V2.10 B1813,2013-06-13 06:42:00,
2013-06-13 01:45:00,59.9,53.7,30.00,NE,45,2.0,7.0,80,0.00,,,0.00,0,WeatherCatV1.15B25,2013-06-13 06:45:00,
2013-06-13 01:47:00,59.5,53.7,29.99,NNE,12,5.0,6.0,81,0.00,,,0.00,0,LWC V2.10 B1813,2013-06-13 06:47:00,
2013-06-13 01:50:00,59.9,53.7,30.00,NE,45,2.0,7.0,80,0.00,,,0.00,0,WeatherCatV1.15B25,2013-06-13 06:50:00,
2013-06-13 01:52:00,59.4,53.6,29.99,NNE,25,2.0,11.0,81,0.00,,,0.00,0,LWC V2.10 B1813,2013-06-13 06:52:00,
2013-06-13 01:55:00,59.6,53.8,30.00,NE,45,2.0,10.0,81,0.00,,,0.00,0,WeatherCatV1.15B25,2013-06-13 06:55:00,
2013-06-13 01:57:00,59.0,53.2,29.98,ENE,59,2.0,3.0,81,0.00,,,0.00,0,LWC V2.10 B1813,2013-06-13 06:57:00,
2013-06-13 02:00:00,59.6,53.8,30.00,NE,45,2.0,10.0,81,0.00,,,0.00,0,WeatherCatV1.15B25,2013-06-13 07:00:00,
2013-06-13 02:02:00,59.0,53.2,29.98,ENE,59,0.0,0.0,81,0.00,,,0.00,0,LWC V2.10 B1813,2013-06-13 07:02:00,
2013-06-13 02:05:00,59.6,53.8,30.00,NE,45,2.0,10.0,81,0.00,,,0.00,0,WeatherCatV1.15B25,2013-06-13 07:05:00,
2013-06-13 02:07:00,59.0,53.2,29.99,ENE,59,3.0,3.0,81,0.00,,,0.00,0,LWC V2.10 B1813,2013-06-13 07:07:00,
2013-06-13 02:10:00,59.3,53.5,29.98,NNE,22,2.0,11.0,81,0.00,,,0.00,0,WeatherCatV1.15B25,2013-06-13 07:10:00,
2013-06-13 02:12:00,59.0,53.2,29.99,North,0,4.0,7.0,81,0.00,,,0.00,0,LWC V2.10 B1813,2013-06-13 07:12:00,
2013-06-13 02:15:00,59.3,53.5,29.98,NNE,22,2.0,11.0,81,0.00,,,0.00,0,WeatherCatV1.15B25,2013-06-13 07:15:00,
2013-06-13 02:17:00,59.0,53.2,29.98,NNE,22,6.0,6.0,81,0.00,,,0.00,0,LWC V2.10 B1813,2013-06-13 07:17:00,
2013-06-13 02:20:00,59.3,53.5,29.98,NNE,22,2.0,11.0,81,0.00,,,0.00,0,WeatherCatV1.15B25,2013-06-13 07:20:00,
2013-06-13 02:22:00,59.0,53.2,29.99,NNE,24,0.0,6.0,81,0.00,,,0.00,0,LWC V2.10 B1813,2013-06-13 07:22:00,
2013-06-13 02:25:00,59.0,53.2,29.99,ENE,68,1.0,7.0,81,0.00,,,0.00,0,WeatherCatV1.15B25,2013-06-13 07:25:00,
2013-06-13 02:27:00,59.0,53.2,29.97,NNE,32,3.0,4.0,81,0.00,,,0.00,0,LWC V2.10 B1813,2013-06-13 07:27:00,
2013-06-13 02:30:00,59.0,53.2,29.99,ENE,68,1.0,7.0,81,0.00,,,0.00,0,WeatherCatV1.15B25,2013-06-13 07:30:00,
2013-06-13 02:32:00,59.0,53.2,29.97,NNE,31,3.0,4.0,81,0.00,,,0.00,0,LWC V2.10 B1813,2013-06-13 07:32:00,
2013-06-13 02:35:00,59.0,53.2,29.99,ENE,68,1.0,7.0,81,0.00,,,0.00,0,WeatherCatV1.15B25,2013-06-13 07:35:00,
2013-06-13 02:37:00,59.0,53.2,29.98,NNE,31,0.0,0.0,81,0.00,,,0.00,0,LWC V2.10 B1813,2013-06-13 07:37:00,
2013-06-13 02:40:00,59.0,53.2,29.97,NNE,22,2.0,10.0,81,0.00,,,0.00,0,WeatherCatV1.15B25,2013-06-13 07:40:00,
2013-06-13 02:42:00,58.7,52.9,29.98,NNE,30,0.0,2.0,81,0.00,,,0.00,0,LWC V2.10 B1813,2013-06-13 07:42:00,
2013-06-13 02:45:00,59.0,53.2,29.97,NNE,22,2.0,10.0,81,0.00,,,0.00,0,WeatherCatV1.15B25,2013-06-13 07:45:00,
2013-06-13 02:47:00,58.6,52.8,29.98,NE,34,0.0,2.0,81,0.00,,,0.00,0,LWC V2.10 B1813,2013-06-13 07:47:00,
2013-06-13 02:50:00,59.0,53.2,29.97,NNE,22,2.0,10.0,81,0.00,,,0.00,0,WeatherCatV1.15B25,2013-06-13 07:50:00,
2013-06-13 02:52:00,58.5,52.7,29.99,NNE,31,2.0,6.0,81,0.00,,,0.00,0,LWC V2.10 B1813,2013-06-13 07:52:00,
2013-06-13 02:55:00,58.9,53.1,29.98,NNE,22,1.0,7.0,81,0.00,,,0.00,0,WeatherCatV1.15B25,2013-06-13 07:55:00,
2013-06-13 02:57:00,58.4,52.6,29.99,NNE,30,0.0,0.0,81,0.00,,,0.00,0,LWC V2.10 B1813,2013-06-13 07:57:00,
2013-06-13 03:00:00,58.9,53.1,29.98,NNE,22,1.0,7.0,81,0.00,,,0.00,0,WeatherCatV1.15B25,2013-06-13 08:00:00,
2013-06-13 03:02:00,58.4,52.9,30.00,NNE,30,0.0,0.0,82,0.00,,,0.00,0,LWC V2.10 B1813,2013-06-13 08:02:00,
2013-06-13 03:05:00,58.9,53.1,29.98,NNE,22,1.0,7.0,81,0.00,,,0.00,0,WeatherCatV1.15B25,2013-06-13 08:05:00,
2013-06-13 03:07:00,58.3,52.5,30.00,NNE,30,0.0,0.0,81,0.00,,,0.00,0,LWC V2.10 B1813,2013-06-13 08:07:00,
2013-06-13 03:10:00,58.5,53.0,29.99,NNE,22,1.0,6.0,82,0.00,,,0.00,0,WeatherCatV1.15B25,2013-06-13 08:10:00,
2013-06-13 03:12:00,58.2,52.7,29.99,NNE,29,4.0,4.0,82,0.00,,,0.00,0,LWC V2.10 B1813,2013-06-13 08:12:00,
2013-06-13 03:15:00,58.5,53.0,29.99,NNE,22,1.0,6.0,82,0.00,,,0.00,0,WeatherCatV1.15B25,2013-06-13 08:15:00,
2013-06-13 03:17:00,58.2,52.7,29.99,NNE,28,0.0,4.0,82,0.00,,,0.00,0,LWC V2.10 B1813,2013-06-13 08:17:00,
2013-06-13 03:20:00,58.5,53.0,29.99,NNE,22,1.0,6.0,82,0.00,,,0.00,0,WeatherCatV1.15B25,2013-06-13 08:20:00,
2013-06-13 03:22:00,58.0,52.5,29.99,NNE,28,0.0,3.0,82,0.00,,,0.00,0,LWC V2.10 B1813,2013-06-13 08:22:00,
2013-06-13 03:25:00,58.3,52.8,29.99,NNE,22,1.0,5.0,82,0.00,,,0.00,0,WeatherCatV1.15B25,2013-06-13 08:25:00,
2013-06-13 03:27:00,58.0,52.5,29.99,NNE,28,0.0,2.0,82,0.00,,,0.00,0,LWC V2.10 B1813,2013-06-13 08:27:00,
2013-06-13 03:30:00,58.3,52.8,29.99,NNE,22,1.0,5.0,82,0.00,,,0.00,0,WeatherCatV1.15B25,2013-06-13 08:30:00,
2013-06-13 03:32:00,57.9,52.4,29.99,NNE,28,0.0,3.0,82,0.00,,,0.00,0,LWC V2.10 B1813,2013-06-13 08:32:00,
2013-06-13 03:35:00,58.3,52.8,29.99,NNE,22,1.0,5.0,82,0.00,,,0.00,0,WeatherCatV1.15B25,2013-06-13 08:35:00,
2013-06-13 03:37:00,57.8,52.3,29.99,NNE,28,1.0,2.0,82,0.00,,,0.00,0,LWC V2.10 B1813,2013-06-13 08:37:00,
2013-06-13 03:40:00,58.0,52.5,29.99,NNE,22,1.0,4.0,82,0.00,,,0.00,0,WeatherCatV1.15B25,2013-06-13 08:40:00,
2013-06-13 03:42:00,57.7,52.2,30.00,NNE,28,0.0,0.0,82,0.00,,,0.00,0,LWC V2.10 B1813,2013-06-13 08:42:00,
2013-06-13 03:45:00,58.0,52.5,29.99,NNE,22,1.0,4.0,82,0.00,,,0.00,0,WeatherCatV1.15B25,2013-06-13 08:45:00,
2013-06-13 03:47:00,57.7,52.6,30.01,NNE,28,0.0,0.0,83,0.00,,,0.00,0,LWC V2.10 B1813,2013-06-13 08:47:00,
2013-06-13 03:50:00,58.0,52.5,29.99,NNE,22,1.0,4.0,82,0.00,,,0.00,0,WeatherCatV1.15B25,2013-06-13 08:50:00,
2013-06-13 03:52:00,57.7,52.6,30.01,NNE,28,2.0,2.0,83,0.00,,,0.00,0,LWC V2.10 B1813,2013-06-13 08:52:00,
2013-06-13 03:55:00,57.8,52.3,30.01,NNE,22,0.0,3.0,82,0.00,,,0.00,0,WeatherCatV1.15B25,2013-06-13 08:55:00,
2013-06-13 03:57:00,57.7,52.6,30.01,NNE,25,3.0,5.0,83,0.00,,,0.00,0,LWC V2.10 B1813,2013-06-13 08:57:00,
2013-06-13 04:00:00,57.8,52.3,30.01,NNE,22,0.0,3.0,82,0.00,,,0.00,0,WeatherCatV1.15B25,2013-06-13 09:00:00,
2013-06-13 04:02:00,57.9,52.4,30.02,NNE,26,0.0,3.0,82,0.00,,,0.00,0,LWC V2.10 B1813,2013-06-13 09:02:00,
2013-06-13 04:05:00,57.8,52.3,30.01,NNE,22,0.0,3.0,82,0.00,,,0.00,0,WeatherCatV1.15B25,2013-06-13 09:05:00,
2013-06-13 04:07:00,58.0,52.5,30.02,NNE,24,0.0,4.0,82,0.00,,,0.00,0,LWC V2.10 B1813,2013-06-13 09:07:00,
2013-06-13 04:10:00,57.7,52.6,30.02,NNE,22,1.0,6.0,83,0.00,,,0.00,0,WeatherCatV1.15B25,2013-06-13 09:10:00,
2013-06-13 04:12:00,58.0,52.5,30.02,NNE,24,0.0,2.0,82,0.00,,,0.00,0,LWC V2.10 B1813,2013-06-13 09:12:00,
2013-06-13 04:15:00,57.7,52.6,30.02,NNE,22,1.0,6.0,83,0.00,,,0.00,0,WeatherCatV1.15B25,2013-06-13 09:15:00,
2013-06-13 04:17:00,57.8,52.3,30.01,NNE,24,0.0,0.0,82,0.00,,,0.00,0,LWC V2.10 B1813,2013-06-13 09:17:00,
2013-06-13 04:20:00,57.7,52.6,30.02,NNE,22,1.0,6.0,83,0.00,,,0.00,0,WeatherCatV1.15B25,2013-06-13 09:20:00,
2013-06-13 04:22:00,57.7,52.2,30.01,NNW,348,0.0,1.0,82,0.00,,,0.00,0,LWC V2.10 B1813,2013-06-13 09:22:00,
2013-06-13 04:25:00,58.0,52.5,30.02,NNE,22,1.0,4.0,82,0.00,,,0.00,0,WeatherCatV1.15B25,2013-06-13 09:25:00,
2013-06-13 04:27:00,57.6,52.1,30.00,North,350,2.0,5.0,82,0.00,,,0.00,0,LWC V2.10 B1813,2013-06-13 09:27:00,
2013-06-13 04:30:00,58.0,52.5,30.02,NNE,22,1.0,4.0,82,0.00,,,0.00,0,WeatherCatV1.15B25,2013-06-13 09:30:00,
2013-06-13 04:32:00,57.4,52.3,29.99,NNE,19,4.0,7.0,83,0.00,,,0.00,0,LWC V2.10 B1813,2013-06-13 09:32:00,
2013-06-13 04:35:00,58.0,52.5,30.02,NNE,22,1.0,4.0,82,0.00,,,0.00,0,WeatherCatV1.15B25,2013-06-13 09:35:00,
2013-06-13 04:37:00,57.5,52.4,29.99,NNE,15,4.0,10.0,83,0.00,,,0.00,0,LWC V2.10 B1813,2013-06-13 09:37:00,
2013-06-13 04:40:00,57.7,52.6,29.99,NNW,338,1.0,6.0,83,0.00,,,0.00,0,WeatherCatV1.15B25,2013-06-13 09:40:00,
2013-06-13 04:42:00,57.4,52.3,29.99,North,10,2.0,7.0,83,0.00,,,0.00,0,LWC V2.10 B1813,2013-06-13 09:42:00,
2013-06-13 04:45:00,57.7,52.6,29.99,NNW,338,1.0,6.0,83,0.00,,,0.00,0,WeatherCatV1.15B25,2013-06-13 09:45:00,
2013-06-13 04:47:00,57.3,52.2,30.00,North,355,4.0,5.0,83,0.00,,,0.00,0,LWC V2.10 B1813,2013-06-13 09:47:00,
2013-06-13 04:50:00,57.7,52.6,29.99,NNW,338,1.0,6.0,83,0.00,,,0.00,0,WeatherCatV1.15B25,2013-06-13 09:50:00,
2013-06-13 04:52:00,57.2,52.1,30.00,NNW,343,1.0,1.0,83,0.00,,,0.00,0,LWC V2.10 B1813,2013-06-13 09:52:00,
2013-06-13 04:55:00,57.4,52.3,29.99,NNE,22,3.0,11.0,83,0.00,,,0.00,0,WeatherCatV1.15B25,2013-06-13 09:55:00,
2013-06-13 04:57:00,57.0,52.2,30.01,NNW,344,0.0,5.0,84,0.00,,,0.00,0,LWC V2.10 B1813,2013-06-13 09:57:00,
2013-06-13 05:00:00,57.4,52.3,29.99,NNE,22,3.0,11.0,83,0.00,,,0.00,0,WeatherCatV1.15B25,2013-06-13 10:00:00,
2013-06-13 05:02:00,56.9,52.1,30.02,NNW,342,0.0,3.0,84,0.00,,,0.00,0,LWC V2.10 B1813,2013-06-13 10:02:00,
2013-06-13 05:05:00,57.4,52.3,29.99,NNE,22,3.0,11.0,83,0.00,,,0.00,0,WeatherCatV1.15B25,2013-06-13 10:05:00,
2013-06-13 05:07:00,56.9,52.1,30.02,NNW,342,0.0,0.0,84,0.00,,,0.00,0,LWC V2.10 B1813,2013-06-13 10:07:00,
2013-06-13 05:10:00,57.1,52.3,30.02,NNW,338,1.0,6.0,84,0.00,,,0.00,0,WeatherCatV1.15B25,2013-06-13 10:10:00,
2013-06-13 05:12:00,56.8,52.0,30.02,NNW,343,2.0,3.0,84,0.00,,,0.00,0,LWC V2.10 B1813,2013-06-13 10:12:00,
2013-06-13 05:15:00,57.1,52.3,30.02,NNW,338,1.0,6.0,84,0.00,,,0.00,0,WeatherCatV1.15B25,2013-06-13 10:15:00,
2013-06-13 05:17:00,56.7,51.9,30.03,NNW,343,0.0,1.0,84,0.00,,,0.00,0,LWC V2.10 B1813,2013-06-13 10:17:00,
2013-06-13 05:20:00,57.1,52.3,30.02,NNW,338,1.0,6.0,84,0.00,,,0.00,0,WeatherCatV1.15B25,2013-06-13 10:20:00,
2013-06-13 05:22:00,56.6,52.1,30.03,NNW,342,0.0,0.0,85,0.00,,,0.00,0,LWC V2.10 B1813,2013-06-13 10:22:00,
2013-06-13 05:25:00,56.9,52.1,30.02,NNW,338,0.0,3.0,84,0.00,,,0.00,0,WeatherCatV1.15B25,2013-06-13 10:25:00,
2013-06-13 05:27:00,56.4,51.9,30.03,NNW,343,0.0,0.0,85,0.00,,,0.00,0,LWC V2.10 B1813,2013-06-13 10:27:00,
2013-06-13 05:30:00,56.9,52.1,30.02,NNW,338,0.0,3.0,84,0.00,,,0.00,0,WeatherCatV1.15B25,2013-06-13 10:30:00,
2013-06-13 05:32:00,56.1,51.7,30.04,NNW,343,0.0,0.0,85,0.00,,,0.00,0,LWC V2.10 B1813,2013-06-13 10:32:00,
2013-06-13 05:35:00,56.9,52.1,30.02,NNW,338,0.0,3.0,84,0.00,,,0.00,0,WeatherCatV1.15B25,2013-06-13 10:35:00,
2013-06-13 05:37:00,56.0,51.9,30.03,NNW,343,0.0,0.0,86,0.00,,,0.00,0,LWC V2.10 B1813,2013-06-13 10:37:00,
2013-06-13 05:40:00,56.6,52.1,30.03,NNW,338,0.0,1.0,85,0.00,,,0.00,0,WeatherCatV1.15B25,2013-06-13 10:40:00,
2013-06-13 05:42:00,55.9,51.8,30.03,NNW,343,4.0,4.0,86,0.00,,,0.00,0,LWC V2.10 B1813,2013-06-13 10:42:00,
2013-06-13 05:45:00,56.6,52.1,30.03,NNW,338,0.0,1.0,85,0.00,,,0.00,0,WeatherCatV1.15B25,2013-06-13 10:45:00,
2013-06-13 05:47:00,55.8,51.7,30.03,NNW,343,0.0,3.0,86,0.00,,,0.00,0,LWC V2.10 B1813,2013-06-13 10:47:00,
2013-06-13 05:50:00,56.6,52.1,30.03,NNW,338,0.0,1.0,85,0.00,,,0.00,0,WeatherCatV1.15B25,2013-06-13 10:50:00,
2013-06-13 05:52:00,55.7,51.6,30.04,NNW,342,0.0,0.0,86,0.00,,,0.00,0,LWC V2.10 B1813,2013-06-13 10:52:00,
2013-06-13 05:55:00,56.0,51.9,30.03,NNW,338,1.0,4.0,86,0.00,,,0.00,0,WeatherCatV1.15B25,2013-06-13 10:55:00,
2013-06-13 05:57:00,55.7,51.6,30.04,NNW,343,0.0,0.0,86,0.00,,,0.00,0,LWC V2.10 B1813,2013-06-13 10:57:00,
2013-06-13 06:00:00,56.0,51.9,30.03,NNW,338,1.0,4.0,86,0.00,,,0.00,0,WeatherCatV1.15B25,2013-06-13 11:00:00,
2013-06-13 06:02:00,55.7,51.9,30.04,North,349,0.0,3.0,87,0.00,,,0.00,5,LWC V2.10 B1813,2013-06-13 11:02:00,
2013-06-13 06:05:00,56.0,51.9,30.03,NNW,338,1.0,4.0,86,0.00,,,0.00,0,WeatherCatV1.15B25,2013-06-13 11:05:00,
2013-06-13 06:07:00,55.7,51.9,30.03,North,349,0.0,0.0,87,0.00,,,0.00,7,LWC V2.10 B1813,2013-06-13 11:07:00,
2013-06-13 06:10:00,55.7,51.6,30.03,NNW,338,0.0,6.0,86,0.00,,,0.00,0,WeatherCatV1.15B25,2013-06-13 11:10:00,
2013-06-13 06:12:00,55.7,51.9,30.03,North,349,0.0,1.0,87,0.00,,,0.00,12,LWC V2.10 B1813,2013-06-13 11:12:00,
2013-06-13 06:15:00,55.7,51.6,30.03,NNW,338,0.0,6.0,86,0.00,,,0.00,0,WeatherCatV1.15B25,2013-06-13 11:15:00,
2013-06-13 06:17:00,55.9,52.1,30.03,North,355,2.0,4.0,87,0.00,,,0.00,16,LWC V2.10 B1813,2013-06-13 11:17:00,
2013-06-13 06:20:00,55.7,51.6,30.03,NNW,338,0.0,6.0,86,0.00,,,0.00,0,WeatherCatV1.15B25,2013-06-13 11:20:00,
2013-06-13 06:22:00,56.1,52.3,30.03,North,0,0.0,4.0,87,0.00,,,0.00,19,LWC V2.10 B1813,2013-06-13 11:22:00,
2013-06-13 06:25:00,55.7,51.9,30.03,North,0,1.0,6.0,87,0.00,,,0.00,9,WeatherCatV1.15B25,2013-06-13 11:25:00,
2013-06-13 06:27:00,56.2,52.4,30.03,North,0,0.0,2.0,87,0.00,,,0.00,21,LWC V2.10 B1813,2013-06-13 11:27:00,
2013-06-13 06:30:00,55.7,51.9,30.03,North,0,1.0,6.0,87,0.00,,,0.00,9,WeatherCatV1.15B25,2013-06-13 11:30:00,
2013-06-13 06:32:00,56.2,52.1,30.04,North,0,3.0,4.0,86,0.00,,,0.00,25,LWC V2.10 B1813,2013-06-13 11:32:00,
2013-06-13 06:35:00,55.7,51.9,30.03,North,0,1.0,6.0,87,0.00,,,0.00,9,WeatherCatV1.15B25,2013-06-13 11:35:00,
2013-06-13 06:37:00,56.3,52.2,30.03,NNE,13,0.0,3.0,86,0.00,,,0.00,28,LWC V2.10 B1813,2013-06-13 11:37:00,
2013-06-13 06:40:00,56.1,52.0,30.04,North,0,1.0,5.0,86,0.00,,,0.00,19,WeatherCatV1.15B25,2013-06-13 11:40:00,
2013-06-13 06:42:00,56.3,52.2,30.03,NNE,13,0.0,0.0,86,0.00,,,0.00,33,LWC V2.10 B1813,2013-06-13 11:42:00,
2013-06-13 06:45:00,56.1,52.0,30.04,North,0,1.0,5.0,86,0.00,,,0.00,19,WeatherCatV1.15B25,2013-06-13 11:45:00,
2013-06-13 06:47:00,56.4,52.3,30.03,NNE,13,0.0,1.0,86,0.00,,,0.00,35,LWC V2.10 B1813,2013-06-13 11:47:00,
2013-06-13 06:50:00,56.1,52.0,30.04,North,0,1.0,5.0,86,0.00,,,0.00,19,WeatherCatV1.15B25,2013-06-13 11:50:00,
2013-06-13 06:52:00,56.5,52.4,30.03,NNE,13,1.0,3.0,86,0.00,,,0.00,40,LWC V2.10 B1813,2013-06-13 11:52:00,
2013-06-13 06:55:00,56.3,52.2,30.03,NNE,22,1.0,6.0,86,0.00,,,0.00,30,WeatherCatV1.15B25,2013-06-13 11:55:00,
2013-06-13 06:57:00,56.6,52.5,30.03,NNE,15,1.0,1.0,86,0.00,,,0.00,51,LWC V2.10 B1813,2013-06-13 11:57:00,
2013-06-13 07:00:00,56.3,52.2,30.03,NNE,22,1.0,6.0,86,0.00,,,0.00,30,WeatherCatV1.15B25,2013-06-13 12:00:00,
2013-06-13 07:02:00,56.7,52.6,30.03,NNE,15,1.0,1.0,86,0.00,,,0.00,70,LWC V2.10 B1813,2013-06-13 12:02:00,
2013-06-13 07:05:00,56.3,52.2,30.03,NNE,22,1.0,6.0,86,0.00,,,0.00,30,WeatherCatV1.15B25,2013-06-13 12:05:00,
2013-06-13 07:07:00,56.9,52.8,30.03,NNE,17,1.0,4.0,86,0.00,,,0.00,77,LWC V2.10 B1813,2013-06-13 12:07:00,
2013-06-13 07:10:00,56.5,52.4,30.03,NNE,22,1.0,6.0,86,0.00,,,0.00,44,WeatherCatV1.15B25,2013-06-13 12:10:00,
2013-06-13 07:12:00,57.0,52.5,30.02,NNE,18,0.0,4.0,85,0.00,,,0.00,84,LWC V2.10 B1813,2013-06-13 12:12:00,
2013-06-13 07:15:00,56.5,52.4,30.03,NNE,22,1.0,6.0,86,0.00,,,0.00,44,WeatherCatV1.15B25,2013-06-13 12:15:00,
2013-06-13 07:17:00,57.3,52.8,30.02,NNE,23,0.0,5.0,85,0.00,,,0.00,93,LWC V2.10 B1813,2013-06-13 12:17:00,
2013-06-13 07:20:00,56.5,52.4,30.03,NNE,22,1.0,6.0,86,0.00,,,0.00,44,WeatherCatV1.15B25,2013-06-13 12:20:00,
2013-06-13 07:22:00,57.5,53.0,30.02,NNE,19,0.0,6.0,85,0.00,,,0.00,100,LWC V2.10 B1813,2013-06-13 12:22:00,
2013-06-13 07:25:00,56.9,52.4,30.02,NNE,22,1.0,5.0,85,0.00,,,0.00,78,WeatherCatV1.15B25,2013-06-13 12:25:00,
2013-06-13 07:27:00,57.8,53.3,30.03,NNE,19,5.0,7.0,85,0.00,,,0.00,144,LWC V2.10 B1813,2013-06-13 12:27:00,
2013-06-13 07:30:00,56.9,52.4,30.02,NNE,22,1.0,5.0,85,0.00,,,0.00,78,WeatherCatV1.15B25,2013-06-13 12:30:00,
2013-06-13 07:32:00,58.0,53.2,30.03,NNE,24,0.0,4.0,84,0.00,,,0.00,88,LWC V2.10 B1813,2013-06-13 12:32:00,
2013-06-13 07:35:00,56.9,52.4,30.02,NNE,22,1.0,5.0,85,0.00,,,0.00,78,WeatherCatV1.15B25,2013-06-13 12:35:00,
2013-06-13 07:37:00,58.2,53.4,30.03,NNE,28,0.0,1.0,84,0.00,,,0.00,125,LWC V2.10 B1813,2013-06-13 12:37:00,
2013-06-13 07:40:00,57.5,53.0,30.02,NNE,22,1.0,10.0,85,0.00,,,0.00,96,WeatherCatV1.15B25,2013-06-13 12:40:00,
2013-06-13 07:42:00,58.4,53.6,30.03,NNE,28,2.0,5.0,84,0.00,,,0.00,118,LWC V2.10 B1813,2013-06-13 12:42:00,
2013-06-13 07:45:00,57.5,53.0,30.02,NNE,22,1.0,10.0,85,0.00,,,0.00,96,WeatherCatV1.15B25,2013-06-13 12:45:00,
2013-06-13 07:47:00,58.9,53.7,30.03,NNE,32,0.0,5.0,83,0.00,,,0.00,202,LWC V2.10 B1813,2013-06-13 12:47:00,
2013-06-13 07:50:00,57.5,53.0,30.02,NNE,22,1.0,10.0,85,0.00,,,0.00,96,WeatherCatV1.15B25,2013-06-13 12:50:00,
2013-06-13 07:52:00,59.1,53.9,30.03,NNE,32,0.0,1.0,83,0.00,,,0.00,279,LWC V2.10 B1813,2013-06-13 12:52:00,
2013-06-13 07:55:00,58.2,53.1,30.03,NNE,22,1.0,6.0,83,0.00,,,0.00,114,WeatherCatV1.15B25,2013-06-13 12:55:00,
2013-06-13 07:57:00,59.7,53.9,30.03,NNE,32,0.0,5.0,81,0.00,,,0.00,250,LWC V2.10 B1813,2013-06-13 12:57:00,
2013-06-13 08:00:00,58.2,53.1,30.03,NNE,22,1.0,6.0,83,0.00,,,0.00,114,WeatherCatV1.15B25,2013-06-13 13:00:00,
2013-06-13 08:02:00,60.1,54.2,30.03,ENE,70,0.0,6.0,81,0.00,,,0.00,322,LWC V2.10 B1813,2013-06-13 13:02:00,
2013-06-13 08:05:00,58.2,53.1,30.03,NNE,22,1.0,6.0,83,0.00,,,0.00,114,WeatherCatV1.15B25,2013-06-13 13:05:00,
2013-06-13 08:07:00,60.5,54.3,30.03,NE,45,1.0,4.0,80,0.00,,,0.00,188,LWC V2.10 B1813,2013-06-13 13:07:00,
2013-06-13 08:10:00,59.3,53.5,30.03,NNE,22,1.0,10.0,81,0.00,,,0.00,200,WeatherCatV1.15B25,2013-06-13 13:10:00,
2013-06-13 08:12:00,60.8,54.2,30.03,NE,41,2.0,5.0,79,0.00,,,0.00,220,LWC V2.10 B1813,2013-06-13 13:12:00,
2013-06-13 08:15:00,59.3,53.5,30.03,NNE,22,1.0,10.0,81,0.00,,,0.00,200,WeatherCatV1.15B25,2013-06-13 13:15:00,
2013-06-13 08:17:00,61.3,54.7,30.03,NE,42,0.0,5.0,79,0.00,,,0.00,364,LWC V2.10 B1813,2013-06-13 13:17:00,
2013-06-13 08:20:00,59.3,53.5,30.03,NNE,22,1.0,10.0,81,0.00,,,0.00,200,WeatherCatV1.15B25,2013-06-13 13:20:00,
2013-06-13 08:22:00,62.3,55.0,30.03,NE,48,0.0,4.0,77,0.00,,,0.00,401,LWC V2.10 B1813,2013-06-13 13:22:00,
2013-06-13 08:25:00,60.5,53.9,30.03,NE,45,2.0,9.0,79,0.00,,,0.00,236,WeatherCatV1.15B25,2013-06-13 13:25:00,
2013-06-13 08:27:00,63.2,55.5,30.04,NE,48,1.0,4.0,76,0.00,,,0.00,253,LWC V2.10 B1813,2013-06-13 13:27:00,
2013-06-13 08:30:00,60.5,53.9,30.03,NE,45,2.0,9.0,79,0.00,,,0.00,236,WeatherCatV1.15B25,2013-06-13 13:30:00,
2013-06-13 08:32:00,63.5,55.1,30.04,NE,48,0.0,2.0,74,0.00,,,0.00,221,LWC V2.10 B1813,2013-06-13 13:32:00,
2013-06-13 08:35:00,60.5,53.9,30.03,NE,45,2.0,9.0,79,0.00,,,0.00,236,WeatherCatV1.15B25,2013-06-13 13:35:00,
2013-06-13 08:37:00,63.6,54.8,30.04,NE,48,0.0,4.0,73,0.00,,,0.00,214,LWC V2.10 B1813,2013-06-13 13:37:00,
2013-06-13 08:40:00,62.3,53.9,30.04,NE,45,1.0,5.0,74,0.00,,,0.00,364,WeatherCatV1.15B25,2013-06-13 13:40:00,
2013-06-13 08:42:00,63.8,54.6,30.04,NE,48,0.0,1.0,72,0.00,,,0.00,452,LWC V2.10 B1813,2013-06-13 13:42:00,
2013-06-13 08:45:00,62.3,53.9,30.04,NE,45,1.0,5.0,74,0.00,,,0.00,364,WeatherCatV1.15B25,2013-06-13 13:45:00,
2013-06-13 08:47:00,64.5,55.3,30.04,NE,48,1.0,3.0,72,0.00,,,0.00,292,LWC V2.10 B1813,2013-06-13 13:47:00,
2013-06-13 08:50:00,62.3,53.9,30.04,NE,45,1.0,5.0,74,0.00,,,0.00,364,WeatherCatV1.15B25,2013-06-13 13:50:00,
2013-06-13 08:52:00,64.6,54.6,30.04,NE,48,2.0,3.0,70,0.00,,,0.00,308,LWC V2.10 B1813,2013-06-13 13:52:00,
2013-06-13 08:55:00,63.7,54.9,30.04,NE,45,1.0,4.0,73,0.00,,,0.00,339,WeatherCatV1.15B25,2013-06-13 13:55:00,
2013-06-13 08:57:00,64.8,55.6,30.05,NE,49,0.0,2.0,72,0.00,,,0.00,417,LWC V2.10 B1813,2013-06-13 13:57:00,
2013-06-13 09:00:00,63.7,54.9,30.04,NE,45,1.0,4.0,73,0.00,,,0.00,339,WeatherCatV1.15B25,2013-06-13 14:00:00,
2013-06-13 09:02:00,65.5,55.4,30.05,NE,49,1.0,2.0,70,0.00,,,0.00,417,LWC V2.10 B1813,2013-06-13 14:02:00,
2013-06-13 09:05:00,63.7,54.9,30.04,NE,45,1.0,4.0,73,0.00,,,0.00,339,WeatherCatV1.15B25,2013-06-13 14:05:00,
2013-06-13 09:07:00,65.6,55.1,30.05,NE,49,0.0,0.0,69,0.00,,,0.00,429,LWC V2.10 B1813,2013-06-13 14:07:00,
2013-06-13 09:10:00,64.7,55.1,30.05,NE,45,1.0,4.0,71,0.00,,,0.00,375,WeatherCatV1.15B25,2013-06-13 14:10:00,
2013-06-13 09:12:00,66.1,55.6,30.05,NE,54,3.0,4.0,69,0.00,,,0.00,457,LWC V2.10 B1813,2013-06-13 14:12:00,
2013-06-13 09:15:00,64.7,55.1,30.05,NE,45,1.0,4.0,71,0.00,,,0.00,375,WeatherCatV1.15B25,2013-06-13 14:15:00,
2013-06-13 09:17:00,66.1,55.2,30.04,NE,55,3.0,3.0,68,0.00,,,0.00,257,LWC V2.10 B1813,2013-06-13 14:17:00,
2013-06-13 09:20:00,64.7,55.1,30.05,NE,45,1.0,4.0,71,0.00,,,0.00,375,WeatherCatV1.15B25,2013-06-13 14:20:00,
2013-06-13 09:22:00,66.0,55.1,30.04,NE,56,3.0,3.0,68,0.00,,,0.00,357,LWC V2.10 B1813,2013-06-13 14:22:00,
2013-06-13 09:25:00,65.7,54.8,30.05,NE,45,0.0,4.0,68,0.00,,,0.00,403,WeatherCatV1.15B25,2013-06-13 14:25:00,
2013-06-13 09:27:00,65.7,54.8,30.04,ENE,74,0.0,3.0,68,0.00,,,0.00,397,LWC V2.10 B1813,2013-06-13 14:27:00,
2013-06-13 09:30:00,65.7,54.8,30.05,NE,45,0.0,4.0,68,0.00,,,0.00,403,WeatherCatV1.15B25,2013-06-13 14:30:00,
2013-06-13 09:32:00,66.2,55.3,30.04,ENE,74,0.0,3.0,68,0.00,,,0.00,527,LWC V2.10 B1813,2013-06-13 14:32:00,
2013-06-13 09:35:00,65.7,54.8,30.05,NE,45,0.0,4.0,68,0.00,,,0.00,403,WeatherCatV1.15B25,2013-06-13 14:35:00,
2013-06-13 09:37:00,66.8,55.9,30.04,ENE,72,1.0,2.0,68,0.00,,,0.00,580,LWC V2.10 B1813,2013-06-13 14:37:00,
2013-06-13 09:40:00,66.0,55.1,30.04,NE,45,1.0,7.0,68,0.00,,,0.00,411,WeatherCatV1.15B25,2013-06-13 14:40:00,
2013-06-13 09:42:00,67.2,55.4,30.03,ESE,107,4.0,6.0,66,0.00,,,0.00,563,LWC V2.10 B1813,2013-06-13 14:42:00,
2013-06-13 09:45:00,66.0,55.1,30.04,NE,45,1.0,7.0,68,0.00,,,0.00,411,WeatherCatV1.15B25,2013-06-13 14:45:00,
2013-06-13 09:47:00,67.6,55.8,30.03,ENE,74,4.0,4.0,66,0.00,,,0.00,638,LWC V2.10 B1813,2013-06-13 14:47:00,
2013-06-13 09:50:00,66.0,55.1,30.04,NE,45,1.0,7.0,68,0.00,,,0.00,411,WeatherCatV1.15B25,2013-06-13 14:50:00,
2013-06-13 09:52:00,68.0,56.2,30.03,East,79,5.0,5.0,66,0.00,,,0.00,649,LWC V2.10 B1813,2013-06-13 14:52:00,
2013-06-13 09:55:00,66.7,55.0,30.03,ENE,68,1.0,7.0,66,0.00,,,0.00,560,WeatherCatV1.15B25,2013-06-13 14:55:00,
2013-06-13 09:57:00,68.3,55.6,30.03,East,96,1.0,2.0,64,0.00,,,0.00,594,LWC V2.10 B1813,2013-06-13 14:57:00,
2013-06-13 10:00:00,66.7,55.0,30.03,ENE,68,1.0,7.0,66,0.00,,,0.00,560,WeatherCatV1.15B25,2013-06-13 15:00:00,
2013-06-13 10:02:00,68.5,55.4,30.03,East,96,0.0,5.0,63,0.00,,,0.00,656,LWC V2.10 B1813,2013-06-13 15:02:00,
2013-06-13 10:05:00,66.7,55.0,30.03,ENE,68,1.0,7.0,66,0.00,,,0.00,560,WeatherCatV1.15B25,2013-06-13 15:05:00,
2013-06-13 10:07:00,68.8,55.7,30.03,East,99,2.0,2.0,63,0.00,,,0.00,557,LWC V2.10 B1813,2013-06-13 15:07:00,
2013-06-13 10:10:00,68.0,55.4,30.03,East,90,2.0,7.0,64,0.00,,,0.00,642,WeatherCatV1.15B25,2013-06-13 15:10:00,
2013-06-13 10:12:00,68.9,54.9,30.03,ESE,115,0.0,11.0,61,0.00,,,0.00,615,LWC V2.10 B1813,2013-06-13 15:12:00,
2013-06-13 10:15:00,68.0,55.4,30.03,East,90,2.0,7.0,64,0.00,,,0.00,642,WeatherCatV1.15B25,2013-06-13 15:15:00,
2013-06-13 10:17:00,69.5,55.9,30.02,ESE,115,2.0,2.0,62,0.00,,,0.00,680,LWC V2.10 B1813,2013-06-13 15:17:00,
2013-06-13 10:20:00,68.0,55.4,30.03,East,90,2.0,7.0,64,0.00,,,0.00,642,WeatherCatV1.15B25,2013-06-13 15:20:00,
2013-06-13 10:22:00,70.0,55.9,30.02,ESE,117,1.0,2.0,61,0.00,,,0.00,596,LWC V2.10 B1813,2013-06-13 15:22:00,
2013-06-13 10:25:00,68.8,55.2,30.02,East,90,2.0,11.0,62,0.00,,,0.00,630,WeatherCatV1.15B25,2013-06-13 15:25:00,
2013-06-13 10:27:00,70.3,55.3,30.03,ESE,116,0.0,4.0,59,0.00,,,0.00,487,LWC V2.10 B1813,2013-06-13 15:27:00,
2013-06-13 10:30:00,68.8,55.2,30.02,East,90,2.0,11.0,62,0.00,,,0.00,630,WeatherCatV1.15B25,2013-06-13 15:30:00,
2013-06-13 10:32:00,70.0,54.5,30.03,ESE,115,1.0,6.0,58,0.00,,,0.00,636,LWC V2.10 B1813,2013-06-13 15:32:00,
2013-06-13 10:35:00,68.8,55.2,30.02,East,90,2.0,11.0,62,0.00,,,0.00,630,WeatherCatV1.15B25,2013-06-13 15:35:00,
2013-06-13 10:37:00,69.9,54.4,30.03,ESE,118,6.0,7.0,58,0.00,,,0.00,492,LWC V2.10 B1813,2013-06-13 15:37:00,
2013-06-13 10:40:00,69.9,55.4,30.03,ESE,112,2.0,9.0,60,0.00,,,0.00,654,WeatherCatV1.15B25,2013-06-13 15:40:00,
2013-06-13 10:42:00,70.0,55.5,30.03,ESE,118,4.0,4.0,60,0.00,,,0.00,497,LWC V2.10 B1813,2013-06-13 15:42:00,
2013-06-13 10:45:00,69.9,55.4,30.03,ESE,112,2.0,9.0,60,0.00,,,0.00,654,WeatherCatV1.15B25,2013-06-13 15:45:00,
2013-06-13 10:47:00,70.0,55.0,30.03,ESE,119,2.0,2.0,59,0.00,,,0.00,578,LWC V2.10 B1813,2013-06-13 15:47:00,
2013-06-13 10:50:00,69.9,55.4,30.03,ESE,112,2.0,9.0,60,0.00,,,0.00,654,WeatherCatV1.15B25,2013-06-13 15:50:00,
2013-06-13 10:52:00,70.5,54.0,30.03,ESE,114,5.0,5.0,56,0.00,,,0.00,570,LWC V2.10 B1813,2013-06-13 15:52:00,
2013-06-13 10:55:00,70.0,54.5,30.03,ESE,112,3.0,11.0,58,0.00,,,0.00,523,WeatherCatV1.15B25,2013-06-13 15:55:00,
2013-06-13 10:57:00,71.0,55.0,30.02,ESE,115,2.0,6.0,57,0.00,,,0.00,531,LWC V2.10 B1813,2013-06-13 15:57:00,
2013-06-13 11:00:00,70.0,54.5,30.03,ESE,112,3.0,11.0,58,0.00,,,0.00,523,WeatherCatV1.15B25,2013-06-13 16:00:00,
2013-06-13 11:02:00,70.6,54.6,30.02,ESE,115,0.0,4.0,57,0.00,,,0.00,450,LWC V2.10 B1813,2013-06-13 16:02:00,
2013-06-13 11:05:00,70.0,54.5,30.03,ESE,112,3.0,11.0,58,0.00,,,0.00,523,WeatherCatV1.15B25,2013-06-13 16:05:00,
2013-06-13 11:07:00,70.7,54.7,30.02,ESE,117,3.0,6.0,57,0.00,,,0.00,462,LWC V2.10 B1813,2013-06-13 16:07:00,
2013-06-13 11:10:00,70.5,54.0,30.02,ESE,112,2.0,9.0,56,0.00,,,0.00,552,WeatherCatV1.15B25,2013-06-13 16:10:00,
2013-06-13 11:12:00,70.9,53.9,30.02,ESE,115,0.0,2.0,55,0.00,,,0.00,540,LWC V2.10 B1813,2013-06-13 16:12:00,
2013-06-13 11:15:00,70.5,54.0,30.02,ESE,112,2.0,9.0,56,0.00,,,0.00,552,WeatherCatV1.15B25,2013-06-13 16:15:00,
2013-06-13 11:17:00,71.6,54.6,30.02,ESE,115,0.0,4.0,55,0.00,,,0.00,580,LWC V2.10 B1813,2013-06-13 16:17:00,
2013-06-13 11:20:00,70.5,54.0,30.02,ESE,112,2.0,9.0,56,0.00,,,0.00,552,WeatherCatV1.15B25,2013-06-13 16:20:00,
2013-06-13 11:22:00,71.9,54.3,30.02,ESE,115,2.0,4.0,54,0.00,,,0.00,269,LWC V2.10 B1813,2013-06-13 16:22:00,
2013-06-13 11:25:00,70.8,54.8,30.02,ESE,112,2.0,6.0,57,0.00,,,0.00,485,WeatherCatV1.15B25,2013-06-13 16:25:00,
2013-06-13 11:27:00,71.3,53.8,30.02,ESE,115,0.0,4.0,54,0.00,,,0.00,248,LWC V2.10 B1813,2013-06-13 16:27:00,
2013-06-13 11:30:00,70.8,54.8,30.02,ESE,112,2.0,6.0,57,0.00,,,0.00,485,WeatherCatV1.15B25,2013-06-13 16:30:00,
2013-06-13 11:32:00,71.0,53.5,30.02,ESE,115,2.0,2.0,54,0.00,,,0.00,223,LWC V2.10 B1813,2013-06-13 16:32:00,
2013-06-13 11:35:00,70.8,54.8,30.02,ESE,112,2.0,6.0,57,0.00,,,0.00,485,WeatherCatV1.15B25,2013-06-13 16:35:00,
2013-06-13 11:37:00,70.8,53.3,30.02,ESE,115,0.0,2.0,54,0.00,,,0.00,244,LWC V2.10 B1813,2013-06-13 16:37:00,
2013-06-13 11:40:00,71.6,54.1,30.02,ESE,112,1.0,4.0,54,0.00,,,0.00,296,WeatherCatV1.15B25,2013-06-13 16:40:00,
2013-06-13 11:42:00,70.7,53.2,30.02,ESE,115,0.0,3.0,54,0.00,,,0.00,230,LWC V2.10 B1813,2013-06-13 16:42:00,
2013-06-13 11:45:00,71.6,54.1,30.02,ESE,112,1.0,4.0,54,0.00,,,0.00,296,WeatherCatV1.15B25,2013-06-13 16:45:00,
2013-06-13 11:47:00,70.8,53.3,30.02,ESE,115,0.0,2.0,54,0.00,,,0.00,234,LWC V2.10 B1813,2013-06-13 16:47:00,
2013-06-13 11:50:00,71.6,54.1,30.02,ESE,112,1.0,4.0,54,0.00,,,0.00,296,WeatherCatV1.15B25,2013-06-13 16:50:00,
2013-06-13 11:52:00,70.8,52.3,30.02,ESE,115,5.0,5.0,52,0.00,,,0.00,220,LWC V2.10 B1813,2013-06-13 16:52:00,
2013-06-13 11:55:00,70.9,53.4,30.02,ESE,112,1.0,6.0,54,0.00,,,0.00,233,WeatherCatV1.15B25,2013-06-13 16:55:00,
2013-06-13 11:57:00,70.8,52.3,30.03,ESE,116,0.0,3.0,52,0.00,,,0.00,174,LWC V2.10 B1813,2013-06-13 16:57:00,
2013-06-13 12:00:00,70.9,53.4,30.02,ESE,112,1.0,6.0,54,0.00,,,0.00,233,WeatherCatV1.15B25,2013-06-13 17:00:00,
2013-06-13 12:02:00,70.8,52.8,30.02,ESE,116,0.0,2.0,53,0.00,,,0.00,162,LWC V2.10 B1813,2013-06-13 17:02:00,
2013-06-13 12:05:00,70.9,53.4,30.02,ESE,112,1.0,6.0,54,0.00,,,0.00,233,WeatherCatV1.15B25,2013-06-13 17:05:00,
2013-06-13 12:07:00,70.7,52.7,30.03,ESE,118,4.0,4.0,53,0.00,,,0.00,279,LWC V2.10 B1813,2013-06-13 17:07:00,
2013-06-13 12:10:00,70.8,52.3,30.03,ESE,112,1.0,7.0,52,0.00,,,0.00,207,WeatherCatV1.15B25,2013-06-13 17:10:00,
2013-06-13 12:12:00,71.0,51.4,30.03,ESE,118,0.0,3.0,50,0.00,,,0.00,380,LWC V2.10 B1813,2013-06-13 17:12:00,
2013-06-13 12:15:00,70.8,52.3,30.03,ESE,112,1.0,7.0,52,0.00,,,0.00,207,WeatherCatV1.15B25,2013-06-13 17:15:00,
2013-06-13 12:17:00,71.8,52.1,30.03,ESE,118,2.0,2.0,50,0.00,,,0.00,513,LWC V2.10 B1813,2013-06-13 17:17:00,
2013-06-13 12:20:00,70.8,52.3,30.03,ESE,112,1.0,7.0,52,0.00,,,0.00,207,WeatherCatV1.15B25,2013-06-13 17:20:00,
2013-06-13 12:22:00,72.7,53.5,30.03,ESE,118,0.0,2.0,51,0.00,,,0.00,512,LWC V2.10 B1813,2013-06-13 17:22:00,
2013-06-13 12:25:00,70.9,51.9,30.03,ESE,112,1.0,7.0,51,0.00,,,0.00,300,WeatherCatV1.15B25,2013-06-13 17:25:00,
2013-06-13 12:27:00,73.4,53.6,30.02,ESE,118,0.0,5.0,50,0.00,,,0.00,563,LWC V2.10 B1813,2013-06-13 17:27:00,
2013-06-13 12:30:00,70.9,51.9,30.03,ESE,112,1.0,7.0,51,0.00,,,0.00,300,WeatherCatV1.15B25,2013-06-13 17:30:00,
2013-06-13 12:32:00,73.5,53.7,30.02,ESE,118,1.0,1.0,50,0.00,,,0.00,385,LWC V2.10 B1813,2013-06-13 17:32:00,
2013-06-13 12:35:00,70.9,51.9,30.03,ESE,112,1.0,7.0,51,0.00,,,0.00,300,WeatherCatV1.15B25,2013-06-13 17:35:00,
2013-06-13 12:37:00,73.3,53.5,30.02,SE,125,2.0,5.0,50,0.00,,,0.00,380,LWC V2.10 B1813,2013-06-13 17:37:00,
2013-06-13 12:40:00,72.6,53.4,30.02,ESE,112,0.0,5.0,51,0.00,,,0.00,492,WeatherCatV1.15B25,2013-06-13 17:40:00,
2013-06-13 12:42:00,73.0,53.8,30.02,SE,125,2.0,2.0,51,0.00,,,0.00,480,LWC V2.10 B1813,2013-06-13 17:42:00,
2013-06-13 12:45:00,72.6,53.4,30.02,ESE,112,0.0,5.0,51,0.00,,,0.00,492,WeatherCatV1.15B25,2013-06-13 17:45:00,
2013-06-13 12:47:00,73.5,54.2,30.02,SE,125,0.0,0.0,51,0.00,,,0.00,457,LWC V2.10 B1813,2013-06-13 17:47:00,
2013-06-13 12:50:00,72.6,53.4,30.02,ESE,112,0.0,5.0,51,0.00,,,0.00,492,WeatherCatV1.15B25,2013-06-13 17:50:00,
2013-06-13 12:52:00,73.8,52.9,30.03,SE,125,0.0,0.0,48,0.00,,,0.00,480,LWC V2.10 B1813,2013-06-13 17:52:00,
2013-06-13 12:55:00,73.3,53.5,30.02,SE,135,1.0,5.0,50,0.00,,,0.00,411,WeatherCatV1.15B25,2013-06-13 17:55:00,
2013-06-13 12:57:00,74.2,53.2,30.03,SE,125,1.0,2.0,48,0.00,,,0.00,371,LWC V2.10 B1813,2013-06-13 17:57:00,
2013-06-13 13:00:00,73.3,53.5,30.02,SE,135,1.0,5.0,50,0.00,,,0.00,411,WeatherCatV1.15B25,2013-06-13 18:00:00,
2013-06-13 13:02:00,73.6,53.2,30.02,ESE,123,0.0,3.0,49,0.00,,,0.00,243,LWC V2.10 B1813,2013-06-13 18:02:00,
2013-06-13 13:05:00,73.3,53.5,30.02,SE,135,1.0,5.0,50,0.00,,,0.00,411,WeatherCatV1.15B25,2013-06-13 18:05:00,
2013-06-13 13:07:00,73.4,54.2,30.02,SE,124,0.0,0.0,51,0.00,,,0.00,253,LWC V2.10 B1813,2013-06-13 18:07:00,
2013-06-13 13:10:00,73.8,52.3,30.02,SE,135,0.0,5.0,47,0.00,,,0.00,450,WeatherCatV1.15B25,2013-06-13 18:10:00,
2013-06-13 13:12:00,72.9,52.6,30.02,ESE,123,0.0,4.0,49,0.00,,,0.00,185,LWC V2.10 B1813,2013-06-13 18:12:00,
2013-06-13 13:15:00,73.8,52.3,30.02,SE,135,0.0,5.0,47,0.00,,,0.00,450,WeatherCatV1.15B25,2013-06-13 18:15:00,
2013-06-13 13:17:00,72.9,53.7,30.02,ESE,123,0.0,0.0,51,0.00,,,0.00,202,LWC V2.10 B1813,2013-06-13 18:17:00,
2013-06-13 13:20:00,73.8,52.3,30.02,SE,135,0.0,5.0,47,0.00,,,0.00,450,WeatherCatV1.15B25,2013-06-13 18:20:00,
2013-06-13 13:22:00,72.6,54.0,30.01,SE,124,0.0,3.0,52,0.00,,,0.00,413,LWC V2.10 B1813,2013-06-13 18:22:00,
2013-06-13 13:25:00,73.3,53.5,30.02,SE,135,1.0,5.0,50,0.00,,,0.00,221,WeatherCatV1.15B25,2013-06-13 18:25:00,
2013-06-13 13:27:00,72.9,54.8,30.02,ESE,123,0.0,3.0,53,0.00,,,0.00,691,LWC V2.10 B1813,2013-06-13 18:27:00,
2013-06-13 13:30:00,73.3,53.5,30.02,SE,135,1.0,5.0,50,0.00,,,0.00,221,WeatherCatV1.15B25,2013-06-13 18:30:00,
2013-06-13 13:32:00,73.7,53.9,30.02,ESE,123,6.0,6.0,50,0.00,,,0.00,578,LWC V2.10 B1813,2013-06-13 18:32:00,
2013-06-13 13:35:00,73.3,53.5,30.02,SE,135,1.0,5.0,50,0.00,,,0.00,221,WeatherCatV1.15B25,2013-06-13 18:35:00,
2013-06-13 13:37:00,74.3,53.9,30.01,ESE,123,0.0,2.0,49,0.00,,,0.00,1056,LWC V2.10 B1813,2013-06-13 18:37:00,
2013-06-13 13:40:00,72.8,54.1,30.02,SE,135,1.0,5.0,52,0.00,,,0.00,395,WeatherCatV1.15B25,2013-06-13 18:40:00,
2013-06-13 13:42:00,74.9,53.3,30.01,ESE,121,3.0,6.0,47,0.00,,,0.00,1060,LWC V2.10 B1813,2013-06-13 18:42:00,
2013-06-13 13:45:00,72.8,54.1,30.02,SE,135,1.0,5.0,52,0.00,,,0.00,395,WeatherCatV1.15B25,2013-06-13 18:45:00,
2013-06-13 13:47:00,75.2,52.4,30.01,ESE,119,0.0,10.0,45,0.00,,,0.00,983,LWC V2.10 B1813,2013-06-13 18:47:00,
2013-06-13 13:50:00,72.8,54.1,30.02,SE,135,1.0,5.0,52,0.00,,,0.00,395,WeatherCatV1.15B25,2013-06-13 18:50:00,
2013-06-13 13:52:00,75.2,53.0,30.01,ESE,119,0.0,11.0,46,0.00,,,0.00,1032,LWC V2.10 B1813,2013-06-13 18:52:00,
2013-06-13 13:55:00,74.3,52.8,30.01,ESE,112,2.0,10.0,47,0.00,,,0.00,1036,WeatherCatV1.15B25,2013-06-13 18:55:00,
2013-06-13 13:57:00,75.4,53.2,30.01,ESE,120,6.0,11.0,46,0.00,,,0.00,1049,LWC V2.10 B1813,2013-06-13 18:57:00,
2013-06-13 14:00:00,74.3,52.8,30.01,ESE,112,2.0,10.0,47,0.00,,,0.00,1036,WeatherCatV1.15B25,2013-06-13 19:00:00,
2013-06-13 14:02:00,75.4,53.2,30.00,ESE,115,4.0,7.0,46,0.00,,,0.00,1042,LWC V2.10 B1813,2013-06-13 19:02:00,
2013-06-13 14:05:00,74.3,52.8,30.01,ESE,112,2.0,10.0,47,0.00,,,0.00,1036,WeatherCatV1.15B25,2013-06-13 19:05:00,
2013-06-13 14:07:00,75.8,52.9,30.00,ESE,117,5.0,5.0,45,0.00,,,0.00,1044,LWC V2.10 B1813,2013-06-13 19:07:00,
2013-06-13 14:10:00,75.2,51.8,30.01,ESE,112,3.0,12.0,44,0.00,,,0.00,1044,WeatherCatV1.15B25,2013-06-13 19:10:00,
2013-06-13 14:12:00,76.1,53.2,30.00,ESE,114,2.0,3.0,45,0.00,,,0.00,596,LWC V2.10 B1813,2013-06-13 19:12:00,
2013-06-13 14:15:00,75.2,51.8,30.01,ESE,112,3.0,12.0,44,0.00,,,0.00,1044,WeatherCatV1.15B25,2013-06-13 19:15:00,
2013-06-13 14:17:00,76.1,52.6,30.00,ESE,109,9.0,9.0,44,0.00,,,0.00,596,LWC V2.10 B1813,2013-06-13 19:17:00,
2013-06-13 14:20:00,75.2,51.8,30.01,ESE,112,3.0,12.0,44,0.00,,,0.00,1044,WeatherCatV1.15B25,2013-06-13 19:20:00,
2013-06-13 14:22:00,75.5,52.7,29.99,ESE,105,2.0,7.0,45,0.00,,,0.00,415,LWC V2.10 B1813,2013-06-13 19:22:00,
2013-06-13 14:25:00,75.7,53.4,30.00,ESE,112,2.0,9.0,46,0.00,,,0.00,988,WeatherCatV1.15B25,2013-06-13 19:25:00,
2013-06-13 14:27:00,76.0,53.7,29.99,ESE,106,7.0,7.0,46,0.00,,,0.00,928,LWC V2.10 B1813,2013-06-13 19:27:00,
2013-06-13 14:30:00,75.7,53.4,30.00,ESE,112,2.0,9.0,46,0.00,,,0.00,988,WeatherCatV1.15B25,2013-06-13 19:30:00,
2013-06-13 14:32:00,75.8,52.9,29.99,ESE,115,0.0,6.0,45,0.00,,,0.00,1107,LWC V2.10 B1813,2013-06-13 19:32:00,
2013-06-13 14:35:00,75.7,53.4,30.00,ESE,112,2.0,9.0,46,0.00,,,0.00,988,WeatherCatV1.15B25,2013-06-13 19:35:00,
2013-06-13 14:37:00,76.6,53.0,29.98,SE,128,6.0,7.0,44,0.00,,,0.00,1021,LWC V2.10 B1813,2013-06-13 19:37:00,
2013-06-13 14:40:00,75.8,52.3,29.99,ESE,112,3.0,12.0,44,0.00,,,0.00,819,WeatherCatV1.15B25,2013-06-13 19:40:00,
2013-06-13 14:42:00,77.1,53.5,29.98,SE,132,1.0,4.0,44,0.00,,,0.00,919,LWC V2.10 B1813,2013-06-13 19:42:00,
2013-06-13 14:45:00,75.8,52.3,29.99,ESE,112,3.0,12.0,44,0.00,,,0.00,819,WeatherCatV1.15B25,2013-06-13 19:45:00,
2013-06-13 14:47:00,76.9,53.3,29.98,ESE,120,2.0,7.0,44,0.00,,,0.00,911,LWC V2.10 B1813,2013-06-13 19:47:00,
2013-06-13 14:50:00,75.8,52.3,29.99,ESE,112,3.0,12.0,44,0.00,,,0.00,819,WeatherCatV1.15B25,2013-06-13 19:50:00,
2013-06-13 14:52:00,76.5,54.2,29.98,ESE,114,5.0,9.0,46,0.00,,,0.00,874,LWC V2.10 B1813,2013-06-13 19:52:00,
2013-06-13 14:55:00,76.5,53.0,29.98,ESE,112,2.0,10.0,44,0.00,,,0.00,889,WeatherCatV1.15B25,2013-06-13 19:55:00,
2013-06-13 14:57:00,76.9,53.9,29.98,ESE,106,10.0,11.0,45,0.00,,,0.00,784,LWC V2.10 B1813,2013-06-13 19:57:00,
2013-06-13 15:00:00,76.5,53.0,29.98,ESE,112,2.0,10.0,44,0.00,,,0.00,889,WeatherCatV1.15B25,2013-06-13 20:00:00,
2013-06-13 15:02:00,76.6,53.0,29.98,ESE,116,10.0,12.0,44,0.00,,,0.00,795,LWC V2.10 B1813,2013-06-13 20:02:00,
2013-06-13 15:05:00,76.5,53.0,29.98,ESE,112,2.0,10.0,44,0.00,,,0.00,889,WeatherCatV1.15B25,2013-06-13 20:05:00,
2013-06-13 15:07:00,77.3,53.7,29.98,SE,145,4.0,10.0,44,0.00,,,0.00,877,LWC V2.10 B1813,2013-06-13 20:07:00,
2013-06-13 15:10:00,76.7,53.1,29.98,ESE,112,4.0,13.0,44,0.00,,,0.00,792,WeatherCatV1.15B25,2013-06-13 20:10:00,
2013-06-13 15:12:00,78.2,55.1,29.98,SE,141,4.0,4.0,45,0.00,,,0.00,902,LWC V2.10 B1813,2013-06-13 20:12:00,
2013-06-13 15:15:00,76.7,53.1,29.98,ESE,112,4.0,13.0,44,0.00,,,0.00,792,WeatherCatV1.15B25,2013-06-13 20:15:00,
2013-06-13 15:17:00,78.2,53.8,29.97,ESE,121,5.0,12.0,43,0.00,,,0.00,849,LWC V2.10 B1813,2013-06-13 20:17:00,
2013-06-13 15:20:00,76.7,53.1,29.98,ESE,112,4.0,13.0,44,0.00,,,0.00,792,WeatherCatV1.15B25,2013-06-13 20:20:00,
2013-06-13 15:22:00,78.3,55.2,29.98,ESE,107,11.0,11.0,45,0.00,,,0.00,810,LWC V2.10 B1813,2013-06-13 20:22:00,
2013-06-13 15:25:00,77.3,53.0,29.98,ESE,112,3.0,12.0,43,0.00,,,0.00,872,WeatherCatV1.15B25,2013-06-13 20:25:00,
2013-06-13 15:27:00,77.8,54.1,29.97,ESE,110,4.0,6.0,44,0.00,,,0.00,800,LWC V2.10 B1813,2013-06-13 20:27:00,
2013-06-13 15:30:00,77.3,53.0,29.98,ESE,112,3.0,12.0,43,0.00,,,0.00,872,WeatherCatV1.15B25,2013-06-13 20:30:00,
2013-06-13 15:32:00,77.6,54.6,29.97,SE,135,1.0,6.0,45,0.00,,,0.00,577,LWC V2.10 B1813,2013-06-13 20:32:00,
2013-06-13 15:35:00,77.3,53.0,29.98,ESE,112,3.0,12.0,43,0.00,,,0.00,872,WeatherCatV1.15B25,2013-06-13 20:35:00,
2013-06-13 15:37:00,77.5,53.8,29.97,SE,129,11.0,12.0,44,0.00,,,0.00,840,LWC V2.10 B1813,2013-06-13 20:37:00,
2013-06-13 15:40:00,78.1,54.4,29.97,ESE,112,4.0,12.0,44,0.00,,,0.00,793,WeatherCatV1.15B25,2013-06-13 20:40:00,
2013-06-13 15:42:00,77.5,55.1,29.97,ESE,115,0.0,9.0,46,0.00,,,0.00,789,LWC V2.10 B1813,2013-06-13 20:42:00,
2013-06-13 15:45:00,78.1,54.4,29.97,ESE,112,4.0,12.0,44,0.00,,,0.00,793,WeatherCatV1.15B25,2013-06-13 20:45:00,
2013-06-13 15:47:00,78.3,55.2,29.96,ESE,114,5.0,9.0,45,0.00,,,0.00,877,LWC V2.10 B1813,2013-06-13 20:47:00,
2013-06-13 15:50:00,78.1,54.4,29.97,ESE,112,4.0,12.0,44,0.00,,,0.00,793,WeatherCatV1.15B25,2013-06-13 20:50:00,
2013-06-13 15:52:00,78.7,54.9,29.96,ESE,114,5.0,11.0,44,0.00,,,0.00,863,LWC V2.10 B1813,2013-06-13 20:52:00,
2013-06-13 15:55:00,77.6,53.9,29.96,ESE,112,4.0,13.0,44,0.00,,,0.00,733,WeatherCatV1.15B25,2013-06-13 20:55:00,
2013-06-13 15:57:00,78.8,55.0,29.96,SE,128,1.0,9.0,44,0.00,,,0.00,853,LWC V2.10 B1813,2013-06-13 20:57:00,
2013-06-13 16:00:00,77.6,53.9,29.96,ESE,112,4.0,13.0,44,0.00,,,0.00,733,WeatherCatV1.15B25,2013-06-13 21:00:00,
2013-06-13 16:02:00,79.4,54.3,29.96,SE,131,4.0,9.0,42,0.00,,,0.00,846,LWC V2.10 B1813,2013-06-13 21:02:00,
2013-06-13 16:05:00,77.6,53.9,29.96,ESE,112,4.0,13.0,44,0.00,,,0.00,733,WeatherCatV1.15B25,2013-06-13 21:05:00,
2013-06-13 16:07:00,78.5,52.8,29.95,SSE,147,1.0,6.0,41,0.00,,,0.00,334,LWC V2.10 B1813,2013-06-13 21:07:00,
2013-06-13 16:10:00,78.6,53.6,29.96,ESE,112,3.0,14.0,42,0.00,,,0.00,894,WeatherCatV1.15B25,2013-06-13 21:10:00,
2013-06-13 16:12:00,77.6,53.3,29.95,ENE,64,4.0,13.0,43,0.00,,,0.00,540,LWC V2.10 B1813,2013-06-13 21:12:00,
2013-06-13 16:15:00,78.6,53.6,29.96,ESE,112,3.0,14.0,42,0.00,,,0.00,894,WeatherCatV1.15B25,2013-06-13 21:15:00,
2013-06-13 16:17:00,77.8,55.3,29.94,ESE,117,4.0,7.0,46,0.00,,,0.00,482,LWC V2.10 B1813,2013-06-13 21:17:00,
2013-06-13 16:20:00,78.6,53.6,29.96,ESE,112,3.0,14.0,42,0.00,,,0.00,894,WeatherCatV1.15B25,2013-06-13 21:20:00,
2013-06-13 16:22:00,77.7,53.4,29.94,ESE,119,11.0,12.0,43,0.00,,,0.00,452,LWC V2.10 B1813,2013-06-13 21:22:00,
2013-06-13 16:25:00,78.5,55.4,29.95,SE,135,4.0,13.0,45,0.00,,,0.00,467,WeatherCatV1.15B25,2013-06-13 21:25:00,
2013-06-13 16:27:00,77.5,53.8,29.94,ESE,111,5.0,11.0,44,0.00,,,0.00,455,LWC V2.10 B1813,2013-06-13 21:27:00,
2013-06-13 16:30:00,78.5,55.4,29.95,SE,135,4.0,13.0,45,0.00,,,0.00,467,WeatherCatV1.15B25,2013-06-13 21:30:00,
2013-06-13 16:32:00,77.3,54.9,29.94,SE,138,2.0,8.0,46,0.00,,,0.00,431,LWC V2.10 B1813,2013-06-13 21:32:00,
2013-06-13 16:35:00,78.5,55.4,29.95,SE,135,4.0,13.0,45,0.00,,,0.00,467,WeatherCatV1.15B25,2013-06-13 21:35:00,
2013-06-13 16:37:00,77.3,54.3,29.94,SE,125,4.0,10.0,45,0.00,,,0.00,485,LWC V2.10 B1813,2013-06-13 21:37:00,
2013-06-13 16:40:00,77.6,53.9,29.94,ESE,112,4.0,12.0,44,0.00,,,0.00,473,WeatherCatV1.15B25,2013-06-13 21:40:00,
2013-06-13 16:42:00,77.7,55.2,29.94,ESE,123,5.0,9.0,46,0.00,,,0.00,865,LWC V2.10 B1813,2013-06-13 21:42:00,
2013-06-13 16:45:00,77.6,53.9,29.94,ESE,112,4.0,12.0,44,0.00,,,0.00,473,WeatherCatV1.15B25,2013-06-13 21:45:00,
2013-06-13 16:47:00,78.5,56.0,29.94,SE,128,4.0,6.0,46,0.00,,,0.00,805,LWC V2.10 B1813,2013-06-13 21:47:00,
2013-06-13 16:50:00,77.6,53.9,29.94,ESE,112,4.0,12.0,44,0.00,,,0.00,473,WeatherCatV1.15B25,2013-06-13 21:50:00,
2013-06-13 16:52:00,79.0,55.8,29.94,SE,135,6.0,11.0,45,0.00,,,0.00,686,LWC V2.10 B1813,2013-06-13 21:52:00,
2013-06-13 16:55:00,77.4,55.0,29.94,SE,135,3.0,11.0,46,0.00,,,0.00,602,WeatherCatV1.15B25,2013-06-13 21:55:00,
2013-06-13 16:57:00,78.7,55.5,29.93,East,92,3.0,11.0,45,0.00,,,0.00,744,LWC V2.10 B1813,2013-06-13 21:57:00,
2013-06-13 17:00:00,77.4,55.0,29.94,SE,135,3.0,11.0,46,0.00,,,0.00,602,WeatherCatV1.15B25,2013-06-13 22:00:00,
2013-06-13 17:02:00,78.5,56.0,29.93,SE,125,11.0,12.0,46,0.00,,,0.00,598,LWC V2.10 B1813,2013-06-13 22:02:00,
2013-06-13 17:05:00,77.4,55.0,29.94,SE,135,3.0,11.0,46,0.00,,,0.00,602,WeatherCatV1.15B25,2013-06-13 22:05:00,
2013-06-13 17:07:00,78.5,56.0,29.93,SSW,205,3.0,17.0,46,0.00,,,0.00,687,LWC V2.10 B1813,2013-06-13 22:07:00,
2013-06-13 17:10:00,78.7,55.5,29.93,ESE,112,4.0,13.0,45,0.00,,,0.00,733,WeatherCatV1.15B25,2013-06-13 22:10:00,
2013-06-13 17:12:00,78.7,56.2,29.93,ESE,117,10.0,10.0,46,0.00,,,0.00,592,LWC V2.10 B1813,2013-06-13 22:12:00,
2013-06-13 17:15:00,78.7,55.5,29.93,ESE,112,4.0,13.0,45,0.00,,,0.00,733,WeatherCatV1.15B25,2013-06-13 22:15:00,
2013-06-13 17:17:00,78.7,55.5,29.93,ESE,111,11.0,11.0,45,0.00,,,0.00,403,LWC V2.10 B1813,2013-06-13 22:17:00,
2013-06-13 17:20:00,78.7,55.5,29.93,ESE,112,4.0,13.0,45,0.00,,,0.00,733,WeatherCatV1.15B25,2013-06-13 22:20:00,
2013-06-13 17:22:00,78.5,56.0,29.93,ESE,109,0.0,6.0,46,0.00,,,0.00,578,LWC V2.10 B1813,2013-06-13 22:22:00,
2013-06-13 17:25:00,78.6,56.1,29.93,SE,135,5.0,17.0,46,0.00,,,0.00,629,WeatherCatV1.15B25,2013-06-13 22:25:00,
2013-06-13 17:27:00,78.7,56.8,29.93,ESE,123,0.0,6.0,47,0.00,,,0.00,577,LWC V2.10 B1813,2013-06-13 22:27:00,
2013-06-13 17:30:00,78.6,56.1,29.93,SE,135,5.0,17.0,46,0.00,,,0.00,629,WeatherCatV1.15B25,2013-06-13 22:30:00,
2013-06-13 17:32:00,79.0,56.4,29.93,ESE,117,4.0,6.0,46,0.00,,,0.00,522,LWC V2.10 B1813,2013-06-13 22:32:00,
2013-06-13 17:35:00,78.6,56.1,29.93,SE,135,5.0,17.0,46,0.00,,,0.00,629,WeatherCatV1.15B25,2013-06-13 22:35:00,
2013-06-13 17:37:00,79.0,57.0,29.92,SE,134,10.0,10.0,47,0.00,,,0.00,580,LWC V2.10 B1813,2013-06-13 22:37:00,
2013-06-13 17:40:00,78.6,56.7,29.93,ESE,112,3.0,15.0,47,0.00,,,0.00,577,WeatherCatV1.15B25,2013-06-13 22:40:00,
2013-06-13 17:42:00,78.7,56.2,29.92,SE,146,2.0,12.0,46,0.00,,,0.00,550,LWC V2.10 B1813,2013-06-13 22:42:00,
2013-06-13 17:45:00,78.6,56.7,29.93,ESE,112,3.0,15.0,47,0.00,,,0.00,577,WeatherCatV1.15B25,2013-06-13 22:45:00,
2013-06-13 17:47:00,79.1,56.5,29.92,SSW,193,6.0,7.0,46,0.00,,,0.00,538,LWC V2.10 B1813,2013-06-13 22:47:00,
2013-06-13 17:50:00,78.6,56.7,29.93,ESE,112,3.0,15.0,47,0.00,,,0.00,577,WeatherCatV1.15B25,2013-06-13 22:50:00,
2013-06-13 17:52:00,79.5,57.5,29.92,SSE,148,2.0,8.0,47,0.00,,,0.00,519,LWC V2.10 B1813,2013-06-13 22:52:00,
2013-06-13 17:55:00,78.9,56.3,29.92,ESE,112,4.0,12.0,46,0.00,,,0.00,554,WeatherCatV1.15B25,2013-06-13 22:55:00,
2013-06-13 17:57:00,79.5,56.9,29.92,SSE,153,0.0,1.0,46,0.00,,,0.00,499,LWC V2.10 B1813,2013-06-13 22:57:00,
2013-06-13 18:00:00,78.9,56.3,29.92,ESE,112,4.0,12.0,46,0.00,,,0.00,554,WeatherCatV1.15B25,2013-06-13 23:00:00,
2013-06-13 18:02:00,79.8,55.9,29.92,South,187,2.0,8.0,44,0.00,,,0.00,487,LWC V2.10 B1813,2013-06-13 23:02:00,
2013-06-13 18:05:00,78.9,56.3,29.92,ESE,112,4.0,12.0,46,0.00,,,0.00,554,WeatherCatV1.15B25,2013-06-13 23:05:00,
2013-06-13 18:07:00,79.0,55.2,29.92,SE,139,3.0,7.0,44,0.00,,,0.00,466,LWC V2.10 B1813,2013-06-13 23:07:00,
2013-06-13 18:10:00,79.3,56.7,29.92,SE,135,3.0,11.0,46,0.00,,,0.00,515,WeatherCatV1.15B25,2013-06-13 23:10:00,
2013-06-13 18:12:00,78.7,55.5,29.92,SE,133,1.0,9.0,45,0.00,,,0.00,455,LWC V2.10 B1813,2013-06-13 23:12:00,
2013-06-13 18:15:00,79.3,56.7,29.92,SE,135,3.0,11.0,46,0.00,,,0.00,515,WeatherCatV1.15B25,2013-06-13 23:15:00,
2013-06-13 18:17:00,78.7,54.9,29.92,SE,141,5.0,10.0,44,0.00,,,0.00,434,LWC V2.10 B1813,2013-06-13 23:17:00,
2013-06-13 18:20:00,79.3,56.7,29.92,SE,135,3.0,11.0,46,0.00,,,0.00,515,WeatherCatV1.15B25,2013-06-13 23:20:00,
2013-06-13 18:22:00,78.7,55.5,29.91,SE,126,7.0,15.0,45,0.00,,,0.00,418,LWC V2.10 B1813,2013-06-13 23:22:00,
2013-06-13 18:25:00,79.1,55.9,29.92,SE,135,4.0,12.0,45,0.00,,,0.00,465,WeatherCatV1.15B25,2013-06-13 23:25:00,
2013-06-13 18:27:00,78.6,54.8,29.91,ESE,123,7.0,7.0,44,0.00,,,0.00,397,LWC V2.10 B1813,2013-06-13 23:27:00,
2013-06-13 18:30:00,79.1,55.9,29.92,SE,135,4.0,12.0,45,0.00,,,0.00,465,WeatherCatV1.15B25,2013-06-13 23:30:00,
2013-06-13 18:32:00,78.7,55.5,29.91,SSE,161,0.0,12.0,45,0.00,,,0.00,374,LWC V2.10 B1813,2013-06-13 23:32:00,
2013-06-13 18:35:00,79.1,55.9,29.92,SE,135,4.0,12.0,45,0.00,,,0.00,465,WeatherCatV1.15B25,2013-06-13 23:35:00,
2013-06-13 18:37:00,78.7,54.9,29.91,SE,136,3.0,10.0,44,0.00,,,0.00,366,LWC V2.10 B1813,2013-06-13 23:37:00,
2013-06-13 18:40:00,78.7,54.9,29.91,ESE,112,4.0,15.0,44,0.00,,,0.00,412,WeatherCatV1.15B25,2013-06-13 23:40:00,
2013-06-13 18:42:00,78.7,54.9,29.91,SSE,168,4.0,9.0,44,0.00,,,0.00,367,LWC V2.10 B1813,2013-06-13 23:42:00,
2013-06-13 18:45:00,78.7,54.9,29.91,ESE,112,4.0,15.0,44,0.00,,,0.00,412,WeatherCatV1.15B25,2013-06-13 23:45:00,
2013-06-13 18:47:00,78.7,54.9,29.91,SSE,152,3.0,9.0,44,0.00,,,0.00,308,LWC V2.10 B1813,2013-06-13 23:47:00,
2013-06-13 18:50:00,78.7,54.9,29.91,ESE,112,4.0,15.0,44,0.00,,,0.00,412,WeatherCatV1.15B25,2013-06-13 23:50:00,
2013-06-13 18:52:00,78.5,54.7,29.91,SE,146,0.0,6.0,44,0.00,,,0.00,304,LWC V2.10 B1813,2013-06-13 23:52:00,
2013-06-13 18:55:00,78.7,54.9,29.91,SE,135,4.0,12.0,44,0.00,,,0.00,368,WeatherCatV1.15B25,2013-06-13 23:55:00,
2013-06-13 18:57:00,78.5,54.7,29.90,SE,143,5.0,7.0,44,0.00,,,0.00,287,LWC V2.10 B1813,2013-06-13 23:57:00,
2013-06-13 19:00:00,78.7,54.9,29.91,SE,135,4.0,12.0,44,0.00,,,0.00,368,WeatherCatV1.15B25,2013-06-14 00:00:00,
2013-06-13 19:02:00,78.5,55.4,29.90,ESE,123,6.0,11.0,45,0.00,,,0.00,234,LWC V2.10 B1813,2013-06-14 00:02:00,
2013-06-13 19:05:00,78.7,54.9,29.91,SE,135,4.0,12.0,44,0.00,,,0.00,368,WeatherCatV1.15B25,2013-06-14 00:05:00,
2013-06-13 19:07:00,78.5,55.4,29.91,SSE,164,0.0,10.0,45,0.00,,,0.00,272,LWC V2.10 B1813,2013-06-14 00:07:00,
2013-06-13 19:10:00,78.6,55.5,29.90,SE,135,3.0,10.0,45,0.00,,,0.00,296,WeatherCatV1.15B25,2013-06-14 00:10:00,
2013-06-13 19:12:00,78.1,55.0,29.91,SSE,164,1.0,9.0,45,0.00,,,0.00,281,LWC V2.10 B1813,2013-06-14 00:12:00,
2013-06-13 19:15:00,78.6,55.5,29.90,SE,135,3.0,10.0,45,0.00,,,0.00,296,WeatherCatV1.15B25,2013-06-14 00:15:00,
2013-06-13 19:17:00,78.2,55.7,29.90,SSE,153,2.0,5.0,46,0.00,,,0.00,218,LWC V2.10 B1813,2013-06-14 00:17:00,
2013-06-13 19:20:00,78.6,55.5,29.90,SE,135,3.0,10.0,45,0.00,,,0.00,296,WeatherCatV1.15B25,2013-06-14 00:20:00,
2013-06-13 19:22:00,78.2,55.7,29.90,SSE,148,3.0,4.0,46,0.00,,,0.00,262,LWC V2.10 B1813,2013-06-14 00:22:00,
2013-06-13 19:25:00,78.4,55.3,29.91,SSE,158,3.0,11.0,45,0.00,,,0.00,257,WeatherCatV1.15B25,2013-06-14 00:25:00,
2013-06-13 19:27:00,78.1,56.2,29.90,East,101,3.0,10.0,47,0.00,,,0.00,255,LWC V2.10 B1813,2013-06-14 00:27:00,
2013-06-13 19:30:00,78.4,55.3,29.91,SSE,158,3.0,11.0,45,0.00,,,0.00,257,WeatherCatV1.15B25,2013-06-14 00:30:00,
2013-06-13 19:32:00,78.2,56.9,29.90,South,169,1.0,7.0,48,0.00,,,0.00,236,LWC V2.10 B1813,2013-06-14 00:32:00,
2013-06-13 19:35:00,78.4,55.3,29.91,SSE,158,3.0,11.0,45,0.00,,,0.00,257,WeatherCatV1.15B25,2013-06-14 00:35:00,
2013-06-13 19:37:00,78.0,56.7,29.90,SSE,164,0.0,9.0,48,0.00,,,0.00,206,LWC V2.10 B1813,2013-06-14 00:37:00,
2013-06-13 19:40:00,78.1,56.2,29.90,SSE,158,2.0,11.0,47,0.00,,,0.00,251,WeatherCatV1.15B25,2013-06-14 00:40:00,
2013-06-13 19:42:00,77.8,57.1,29.89,ESE,119,5.0,5.0,49,0.00,,,0.00,178,LWC V2.10 B1813,2013-06-14 00:42:00,
2013-06-13 19:45:00,78.1,56.2,29.90,SSE,158,2.0,11.0,47,0.00,,,0.00,251,WeatherCatV1.15B25,2013-06-14 00:45:00,
2013-06-13 19:47:00,77.7,57.0,29.90,ESE,122,0.0,7.0,49,0.00,,,0.00,149,LWC V2.10 B1813,2013-06-14 00:47:00,
2013-06-13 19:50:00,78.1,56.2,29.90,SSE,158,2.0,11.0,47,0.00,,,0.00,251,WeatherCatV1.15B25,2013-06-14 00:50:00,
2013-06-13 19:52:00,77.5,56.8,29.89,SE,132,2.0,7.0,49,0.00,,,0.00,125,LWC V2.10 B1813,2013-06-14 00:52:00,
2013-06-13 19:55:00,78.0,57.3,29.89,ESE,112,2.0,10.0,49,0.00,,,0.00,204,WeatherCatV1.15B25,2013-06-14 00:55:00,
2013-06-13 19:57:00,77.5,57.9,29.89,SE,144,4.0,6.0,51,0.00,,,0.00,109,LWC V2.10 B1813,2013-06-14 00:57:00,
2013-06-13 20:00:00,78.0,57.3,29.89,ESE,112,2.0,10.0,49,0.00,,,0.00,204,WeatherCatV1.15B25,2013-06-14 01:00:00,
2013-06-13 20:02:00,77.5,57.9,29.90,SSW,196,2.0,4.0,51,0.00,,,0.00,88,LWC V2.10 B1813,2013-06-14 01:02:00,
2013-06-13 20:05:00,78.0,57.3,29.89,ESE,112,2.0,10.0,49,0.00,,,0.00,204,WeatherCatV1.15B25,2013-06-14 01:05:00,
2013-06-13 20:07:00,77.4,57.3,29.90,South,190,4.0,6.0,50,0.00,,,0.00,77,LWC V2.10 B1813,2013-06-14 01:07:00,
2013-06-13 20:10:00,77.6,58.0,29.90,ESE,112,2.0,8.0,51,0.00,,,0.00,126,WeatherCatV1.15B25,2013-06-14 01:10:00,
2013-06-13 20:12:00,77.0,56.4,29.90,SSE,163,0.0,9.0,49,0.00,,,0.00,58,LWC V2.10 B1813,2013-06-14 01:12:00,
2013-06-13 20:15:00,77.6,58.0,29.90,ESE,112,2.0,8.0,51,0.00,,,0.00,126,WeatherCatV1.15B25,2013-06-14 01:15:00,
2013-06-13 20:17:00,76.7,56.6,29.90,SSE,165,3.0,5.0,50,0.00,,,0.00,49,LWC V2.10 B1813,2013-06-14 01:17:00,
2013-06-13 20:20:00,77.6,58.0,29.90,ESE,112,2.0,8.0,51,0.00,,,0.00,126,WeatherCatV1.15B25,2013-06-14 01:20:00,
2013-06-13 20:22:00,76.4,56.4,29.89,SSE,164,0.0,3.0,50,0.00,,,0.00,44,LWC V2.10 B1813,2013-06-14 01:22:00,
2013-06-13 20:25:00,77.3,56.6,29.90,SSW,202,2.0,9.0,49,0.00,,,0.00,71,WeatherCatV1.15B25,2013-06-14 01:25:00,
2013-06-13 20:27:00,76.0,56.5,29.89,SSE,164,0.0,4.0,51,0.00,,,0.00,28,LWC V2.10 B1813,2013-06-14 01:27:00,
2013-06-13 20:30:00,77.3,56.6,29.90,SSW,202,2.0,9.0,49,0.00,,,0.00,71,WeatherCatV1.15B25,2013-06-14 01:30:00,
2013-06-13 20:32:00,75.6,56.2,29.89,SSE,163,2.0,5.0,51,0.00,,,0.00,21,LWC V2.10 B1813,2013-06-14 01:32:00,
2013-06-13 20:35:00,77.3,56.6,29.90,SSW,202,2.0,9.0,49,0.00,,,0.00,71,WeatherCatV1.15B25,2013-06-14 01:35:00,
2013-06-13 20:37:00,75.2,55.8,29.89,SSE,163,0.0,5.0,51,0.00,,,0.00,14,LWC V2.10 B1813,2013-06-14 01:37:00,
2013-06-13 20:40:00,76.4,56.9,29.89,SSE,158,1.0,5.0,51,0.00,,,0.00,39,WeatherCatV1.15B25,2013-06-14 01:40:00,
2013-06-13 20:42:00,74.9,56.1,29.89,SSE,163,2.0,3.0,52,0.00,,,0.00,9,LWC V2.10 B1813,2013-06-14 01:42:00,
2013-06-13 20:45:00,76.4,56.9,29.89,SSE,158,1.0,5.0,51,0.00,,,0.00,39,WeatherCatV1.15B25,2013-06-14 01:45:00,
2013-06-13 20:47:00,74.6,56.3,29.90,SSE,163,0.0,3.0,53,0.00,,,0.00,7,LWC V2.10 B1813,2013-06-14 01:47:00,
2013-06-13 20:50:00,76.4,56.9,29.89,SSE,158,1.0,5.0,51,0.00,,,0.00,39,WeatherCatV1.15B25,2013-06-14 01:50:00,
2013-06-13 20:52:00,74.2,56.5,29.89,SSE,163,0.0,1.0,54,0.00,,,0.00,5,LWC V2.10 B1813,2013-06-14 01:52:00,
2013-06-13 20:55:00,75.3,56.4,29.90,SSE,158,1.0,5.0,52,0.00,,,0.00,15,WeatherCatV1.15B25,2013-06-14 01:55:00,
2013-06-13 20:57:00,73.8,57.1,29.90,SSE,163,2.0,2.0,56,0.00,,,0.00,0,LWC V2.10 B1813,2013-06-14 01:57:00,
2013-06-13 21:00:00,75.3,56.4,29.90,SSE,158,1.0,5.0,52,0.00,,,0.00,15,WeatherCatV1.15B25,2013-06-14 02:00:00,
2013-06-13 21:02:00,73.5,57.3,29.89,SSE,163,0.0,1.0,57,0.00,,,0.00,0,LWC V2.10 B1813,2013-06-14 02:02:00,
2013-06-13 21:05:00,75.3,56.4,29.90,SSE,158,1.0,5.0,52,0.00,,,0.00,15,WeatherCatV1.15B25,2013-06-14 02:05:00,
2013-06-13 21:07:00,73.2,57.0,29.89,SSE,163,0.0,0.0,57,0.00,,,0.00,0,LWC V2.10 B1813,2013-06-14 02:07:00,
2013-06-13 21:10:00,74.2,57.5,29.89,SSE,158,0.0,3.0,56,0.00,,,0.00,4,WeatherCatV1.15B25,2013-06-14 02:10:00,
2013-06-13 21:12:00,73.0,57.3,29.90,SSE,163,0.0,1.0,58,0.00,,,0.00,0,LWC V2.10 B1813,2013-06-14 02:12:00,
2013-06-13 21:15:00,74.2,57.5,29.89,SSE,158,0.0,3.0,56,0.00,,,0.00,4,WeatherCatV1.15B25,2013-06-14 02:15:00,
2013-06-13 21:17:00,72.6,57.4,29.90,SSE,163,0.0,3.0,59,0.00,,,0.00,0,LWC V2.10 B1813,2013-06-14 02:17:00,
2013-06-13 21:20:00,74.2,57.5,29.89,SSE,158,0.0,3.0,56,0.00,,,0.00,4,WeatherCatV1.15B25,2013-06-14 02:20:00,
2013-06-13 21:22:00,72.4,57.2,29.90,SSE,163,1.0,4.0,59,0.00,,,0.00,0,LWC V2.10 B1813,2013-06-14 02:22:00,
2013-06-13 21:25:00,73.2,57.5,29.90,SSE,158,0.0,2.0,58,0.00,,,0.00,0,WeatherCatV1.15B25,2013-06-14 02:25:00,
2013-06-13 21:27:00,72.2,57.1,29.90,SSE,161,0.0,4.0,59,0.00,,,0.00,0,LWC V2.10 B1813,2013-06-14 02:27:00,
2013-06-13 21:30:00,73.2,57.5,29.90,SSE,158,0.0,2.0,58,0.00,,,0.00,0,WeatherCatV1.15B25,2013-06-14 02:30:00,
2013-06-13 21:32:00,72.1,57.0,29.90,SE,138,0.0,6.0,59,0.00,,,0.00,0,LWC V2.10 B1813,2013-06-14 02:32:00,
2013-06-13 21:35:00,73.2,57.5,29.90,SSE,158,0.0,2.0,58,0.00,,,0.00,0,WeatherCatV1.15B25,2013-06-14 02:35:00,
2013-06-13 21:37:00,72.0,56.9,29.90,SE,136,1.0,3.0,59,0.00,,,0.00,0,LWC V2.10 B1813,2013-06-14 02:37:00,
2013-06-13 21:40:00,72.4,57.3,29.90,SSE,158,1.0,8.0,59,0.00,,,0.00,0,WeatherCatV1.15B25,2013-06-14 02:40:00,
2013-06-13 21:42:00,71.7,56.6,29.91,SE,136,2.0,4.0,59,0.00,,,0.00,0,LWC V2.10 B1813,2013-06-14 02:42:00,
2013-06-13 21:45:00,72.4,57.3,29.90,SSE,158,1.0,8.0,59,0.00,,,0.00,0,WeatherCatV1.15B25,2013-06-14 02:45:00,
2013-06-13 21:47:00,71.4,56.8,29.91,SE,136,1.0,2.0,60,0.00,,,0.00,0,LWC V2.10 B1813,2013-06-14 02:47:00,
2013-06-13 21:50:00,72.4,57.3,29.90,SSE,158,1.0,8.0,59,0.00,,,0.00,0,WeatherCatV1.15B25,2013-06-14 02:50:00,
2013-06-13 21:52:00,71.0,56.9,29.91,SE,136,0.0,4.0,61,0.00,,,0.00,0,LWC V2.10 B1813,2013-06-14 02:52:00,
2013-06-13 21:55:00,71.9,57.3,29.91,SE,135,2.0,9.0,60,0.00,,,0.00,0,WeatherCatV1.15B25,2013-06-14 02:55:00,
2013-06-13 21:57:00,70.6,56.9,29.90,SE,134,0.0,4.0,62,0.00,,,0.00,0,LWC V2.10 B1813,2013-06-14 02:57:00,
2013-06-13 22:00:00,71.9,57.3,29.91,SE,135,2.0,9.0,60,0.00,,,0.00,0,WeatherCatV1.15B25,2013-06-14 03:00:00,
2013-06-13 22:02:00,70.3,57.1,29.91,SE,134,3.0,5.0,63,0.00,,,0.00,0,LWC V2.10 B1813,2013-06-14 03:02:00,
2013-06-13 22:05:00,71.9,57.3,29.91,SE,135,2.0,9.0,60,0.00,,,0.00,0,WeatherCatV1.15B25,2013-06-14 03:05:00,
2013-06-13 22:07:00,70.0,57.2,29.91,SE,134,0.0,4.0,64,0.00,,,0.00,0,LWC V2.10 B1813,2013-06-14 03:07:00,
2013-06-13 22:10:00,71.1,57.8,29.90,SE,135,1.0,5.0,63,0.00,,,0.00,0,WeatherCatV1.15B25,2013-06-14 03:10:00,
2013-06-13 22:12:00,69.7,57.4,29.91,ESE,123,0.0,6.0,65,0.00,,,0.00,0,LWC V2.10 B1813,2013-06-14 03:12:00,
2013-06-13 22:15:00,71.1,57.8,29.90,SE,135,1.0,5.0,63,0.00,,,0.00,0,WeatherCatV1.15B25,2013-06-14 03:15:00,
2013-06-13 22:17:00,69.4,57.5,29.91,ESE,119,3.0,10.0,66,0.00,,,0.00,0,LWC V2.10 B1813,2013-06-14 03:17:00,
2013-06-13 22:20:00,71.1,57.8,29.90,SE,135,1.0,5.0,63,0.00,,,0.00,0,WeatherCatV1.15B25,2013-06-14 03:20:00,
2013-06-13 22:22:00,69.2,57.3,29.91,ESE,117,0.0,4.0,66,0.00,,,0.00,0,LWC V2.10 B1813,2013-06-14 03:22:00,
2013-06-13 22:25:00,70.0,57.7,29.91,SE,135,2.0,9.0,65,0.00,,,0.00,0,WeatherCatV1.15B25,2013-06-14 03:25:00,
2013-06-13 22:27:00,68.9,57.5,29.91,ESE,115,2.0,2.0,67,0.00,,,0.00,0,LWC V2.10 B1813,2013-06-14 03:27:00,
2013-06-13 22:30:00,70.0,57.7,29.91,SE,135,2.0,9.0,65,0.00,,,0.00,0,WeatherCatV1.15B25,2013-06-14 03:30:00,
2013-06-13 22:32:00,68.7,57.3,29.91,ESE,115,1.0,5.0,67,0.00,,,0.00,0,LWC V2.10 B1813,2013-06-14 03:32:00,
2013-06-13 22:35:00,70.0,57.7,29.91,SE,135,2.0,9.0,65,0.00,,,0.00,0,WeatherCatV1.15B25,2013-06-14 03:35:00,
2013-06-13 22:37:00,68.5,57.1,29.91,ESE,115,2.0,11.0,67,0.00,,,0.00,0,LWC V2.10 B1813,2013-06-14 03:37:00,
2013-06-13 22:40:00,69.2,57.8,29.91,ESE,112,2.0,10.0,67,0.00,,,0.00,0,WeatherCatV1.15B25,2013-06-14 03:40:00,
2013-06-13 22:42:00,68.4,57.4,29.92,ESE,113,1.0,7.0,68,0.00,,,0.00,0,LWC V2.10 B1813,2013-06-14 03:42:00,
2013-06-13 22:45:00,69.2,57.8,29.91,ESE,112,2.0,10.0,67,0.00,,,0.00,0,WeatherCatV1.15B25,2013-06-14 03:45:00,
2013-06-13 22:47:00,68.3,57.3,29.92,ESE,113,0.0,4.0,68,0.00,,,0.00,0,LWC V2.10 B1813,2013-06-14 03:47:00,
2013-06-13 22:50:00,69.2,57.8,29.91,ESE,112,2.0,10.0,67,0.00,,,0.00,0,WeatherCatV1.15B25,2013-06-14 03:50:00,
2013-06-13 22:52:00,68.1,57.1,29.91,ESE,112,3.0,7.0,68,0.00,,,0.00,0,LWC V2.10 B1813,2013-06-14 03:52:00,
2013-06-13 22:55:00,68.6,57.6,29.92,ESE,112,2.0,11.0,68,0.00,,,0.00,0,WeatherCatV1.15B25,2013-06-14 03:55:00,
2013-06-13 22:57:00,67.9,56.9,29.91,ESE,113,4.0,7.0,68,0.00,,,0.00,0,LWC V2.10 B1813,2013-06-14 03:57:00,
2013-06-13 23:00:00,68.6,57.6,29.92,ESE,112,2.0,11.0,68,0.00,,,0.00,0,WeatherCatV1.15B25,2013-06-14 04:00:00,
2013-06-13 23:01:00,67.8,57.2,29.91,SE,126,0.0,5.0,69,0.00,,,0.00,0,LWC V2.10 B1813,2013-06-14 04:01:00,
2013-06-13 23:05:00,68.6,57.6,29.92,ESE,112,2.0,11.0,68,0.00,,,0.00,0,WeatherCatV1.15B25,2013-06-14 04:05:00,
2013-06-13 23:06:00,67.6,57.1,29.91,ESE,123,0.0,6.0,69,0.00,,,0.00,0,LWC V2.10 B1813,2013-06-14 04:06:00,
2013-06-13 23:10:00,68.1,57.5,29.91,ESE,112,3.0,12.0,69,0.00,,,0.00,0,WeatherCatV1.15B25,2013-06-14 04:10:00,
2013-06-13 23:11:00,67.5,57.0,29.91,ESE,122,2.0,7.0,69,0.00,,,0.00,0,LWC V2.10 B1813,2013-06-14 04:11:00,
2013-06-13 23:15:00,68.1,57.5,29.91,ESE,112,3.0,12.0,69,0.00,,,0.00,0,WeatherCatV1.15B25,2013-06-14 04:15:00,
2013-06-13 23:16:00,67.4,57.3,29.91,ESE,122,2.0,8.0,70,0.00,,,0.00,0,LWC V2.10 B1813,2013-06-14 04:16:00,
2013-06-13 23:20:00,68.1,57.5,29.91,ESE,112,3.0,12.0,69,0.00,,,0.00,0,WeatherCatV1.15B25,2013-06-14 04:20:00,
2013-06-13 23:21:00,67.3,57.2,29.91,ESE,122,2.0,7.0,70,0.00,,,0.00,0,LWC V2.10 B1813,2013-06-14 04:21:00,
2013-06-13 23:25:00,67.6,57.1,29.91,ESE,112,2.0,7.0,69,0.00,,,0.00,0,WeatherCatV1.15B25,2013-06-14 04:25:00,
2013-06-13 23:26:00,67.1,57.0,29.91,ESE,122,0.0,6.0,70,0.00,,,0.00,0,LWC V2.10 B1813,2013-06-14 04:26:00,
2013-06-13 23:30:00,67.6,57.1,29.91,ESE,112,2.0,7.0,69,0.00,,,0.00,0,WeatherCatV1.15B25,2013-06-14 04:30:00,
2013-06-13 23:31:00,66.9,56.8,29.91,ESE,122,2.0,6.0,70,0.00,,,0.00,0,LWC V2.10 B1813,2013-06-14 04:31:00,
2013-06-13 23:35:00,67.6,57.1,29.91,ESE,112,2.0,7.0,69,0.00,,,0.00,0,WeatherCatV1.15B25,2013-06-14 04:35:00,
2013-06-13 23:36:00,66.8,56.7,29.91,ESE,122,0.0,0.0,70,0.00,,,0.00,0,LWC V2.10 B1813,2013-06-14 04:36:00,
2013-06-13 23:40:00,67.2,57.1,29.91,ESE,112,1.0,9.0,70,0.00,,,0.00,0,WeatherCatV1.15B25,2013-06-14 04:40:00,
2013-06-13 23:41:00,66.6,56.5,29.90,ESE,122,0.0,7.0,70,0.00,,,0.00,0,LWC V2.10 B1813,2013-06-14 04:41:00,
2013-06-13 23:45:00,67.2,57.1,29.91,ESE,112,1.0,9.0,70,0.00,,,0.00,0,WeatherCatV1.15B25,2013-06-14 04:45:00,
2013-06-13 23:46:00,66.5,56.4,29.91,ESE,122,0.0,0.0,70,0.00,,,0.00,0,LWC V2.10 B1813,2013-06-14 04:46:00,
2013-06-13 23:50:00,67.2,57.1,29.91,ESE,112,1.0,9.0,70,0.00,,,0.00,0,WeatherCatV1.15B25,2013-06-14 04:50:00,
2013-06-13 23:51:00,66.4,56.3,29.92,ESE,122,1.0,2.0,70,0.00,,,0.00,0,LWC V2.10 B1813,2013-06-14 04:51:00,
2013-06-13 23:55:00,66.7,56.6,29.91,ESE,112,1.0,7.0,70,0.00,,,0.00,0,WeatherCatV1.15B25,2013-06-14 04:55:00,
2013-06-13 23:56:00,66.3,56.2,29.93,ESE,122,1.0,1.0,70,0.00,,,0.00,0,LWC V2.10 B1813,2013-06-14 04:56:00,